Calls for Service

Disclaimer: This information is not intended to be used as official crime data. This program does not provide information about all crimes, and excludes specific incidents such as sexual assaults and child abuse. The City of Conway Police Department makes every effort to produce and publish current and accurate information. No warranties, expressed or implied, are provided for the data herein, its use, or its interpretation. The services provided are for informational purposes only and should not be relied on for any type of legal action.

Loading calls...
Showing calls from previous 10 days
Call Number Case Number Address Call Time Incident Type
19-0702796 314 ELIZABETH ST 2019-07-16 13:11:40.687 UNKNOWN TROUBLE
19-0702793 801 ELSINGER BLVD 2019-07-16 12:48:17.707 SUSPICIOUS PERSON
19-0702792 1420 ARDEN LN 2019-07-16 12:47:01.250 THEFT OF PROPERTY
19-0702791 60 SANDPIPER CT 2019-07-16 12:29:13.033 CIVIL MATTER
19-0702790 19-07886 1895 E OAK ST 2019-07-16 12:25:13.197 ACCIDENT - PROPERTY DAMAGE
19-0702786 1715 PENNY ST 2019-07-16 12:12:57.403 ATTEMPT TO CONTACT
19-0702785 1 REBECCA LN 2019-07-16 12:11:55.207 FOUND PROPERTY
19-0702784 101 OAK ST 2019-07-16 12:10:02.463 SUPPLEMENT REPORT CALL
19-0702783 19-07884 1422 CALDWELL ST 2019-07-16 11:48:23.677 ACCIDENT - PROPERTY DAMAGE
19-0702782 2016 ROBINSON AV 2019-07-16 11:38:16.177 HARASSING COMMUNICATIONS
19-0702781 19-07883 475 ROBINS ST 2019-07-16 11:24:44.847 TRESPASSING
19-0702778 3430 IRBY DR 2019-07-16 11:10:47.310 ATTEMPT TO CONTACT
19-0702777 1510 MILL ST 2019-07-16 11:07:20.560 ATTEMPT TO CONTACT
19-0702774 530 S DONAGHEY AV 2019-07-16 10:59:06.130 VEHICLE TOW
19-0702773 766 HARKRIDER ST 2019-07-16 10:57:15.963 ATTEMPT TO CONTACT
19-0702772 710 CLARA DR 2019-07-16 10:54:42.630 AGENCY ASSIST
19-0702771 511 1ST ST 2019-07-16 10:53:40.230 CHECK ON THE WELFARE
19-0702768 1510 MILL ST 2019-07-16 10:46:31.493 ATTEMPT TO CONTACT
19-0702767 2706 SILVER SPRINGS CIR 2019-07-16 10:41:07.730 ATTEMPT TO CONTACT
19-0702760 1510 MILL ST 2019-07-16 10:06:58.523 ATTEMPT TO CONTACT
19-0702759 5330 LOST CANYON DR 2019-07-16 09:57:36.030 SUPPLEMENT REPORT CALL
19-0702758 1805 OTT MEMORIAL BLVD 2019-07-16 09:50:05.000 ALARM
19-0702756 2125 HARKRIDER ST 2019-07-16 09:22:03.187 ATTEMPT TO CONTACT
19-0702753 1601 TYLER ST 2019-07-16 08:57:16.260 CHECKING VEHICLE
19-0702749 2730 DAVE WARD DR 2019-07-16 08:19:21.847 COMPUTER CRIMES
19-0702744 1715 HUDSON LP 2019-07-16 07:51:36.910 SUSPICIOUS ACTIVITY
19-0702742 3950 DAVE WARD DR 2019-07-16 07:40:20.830 DISTURBANCE
19-0702741 530 S DONAGHEY AV 2019-07-16 07:37:32.990 ALARM
19-0702738 19-07878 203 S CENTER ST 2019-07-16 07:31:36.450 DOMESTIC DISTURBANCE
19-0702734 525 SKYLINE DR 2019-07-16 06:57:58.797 ALARM - HOLD UP or PANIC
19-0702733 19-07877 1005 KNIGHTS DR 2019-07-16 06:50:59.840 BREAKING OR ENTERING
19-0702732 1200 DAVE WARD DR 2019-07-16 06:30:38.197 RECKLESS DRIVER
19-0702731 19-07876 1030 CROSSPOINT RD 2019-07-16 06:28:43.020 THEFT OF VEHICLE
19-0702730 1710 HUDSON LP 2019-07-16 05:42:32.007 SUPPLEMENT REPORT CALL
19-0702729 855 SALEM RD 2019-07-16 05:31:33.103 SUSPICIOUS ACTIVITY
19-0702728 420 OAK ST 2019-07-16 03:43:53.850 CHECKING PERSON
19-0702727 1701 HAIRSTON AV 2019-07-16 03:20:10.577 SHOTS FIRED
19-0702726 2125 HARKRIDER ST 2019-07-16 02:52:18.743 ALARM
19-0702725 350 SKYLINE DR 2019-07-16 02:10:40.077 CHECKING VEHICLE
19-0702723 1250 S AMITY RD 2019-07-16 01:22:23.820 ALARM
19-0702722 2840 DAVE WARD DR 2019-07-16 01:17:36.683 911 HANGUP CALL
19-0702721 2050 DAVE WARD DR 2019-07-16 01:17:34.640 CHECKING PERSON
19-0702719 300 S DONAGHEY AV 2019-07-16 00:50:17.550 CHECKING PERSON
19-0702717 1402 E SIEBENMORGEN RD 2019-07-16 00:07:10.803 CHECKING PERSON
19-0702716 2890 DAVE WARD DR 2019-07-16 00:04:51.933 SHOTS FIRED
19-0702715 815 E OAK ST 2019-07-15 23:11:56.780 SUSPICIOUS PERSON
19-0702714 19-07873 1525 CLIFTON ST 2019-07-15 23:02:26.753 HARASSMENT
19-0702713 19-07874 1710 HUDSON LP 2019-07-15 23:00:50.033 LOST CHILD-FOUND CHILD
19-0702712 12 HAWTHORNE DR 2019-07-15 22:48:33.223 BURGLARY
19-0702711 2115 DESHA DR 2019-07-15 22:13:43.170 DOMESTIC DISTURBANCE
19-0702710 1001 MCNUTT RD 2019-07-15 22:00:23.290 CHECK ON THE WELFARE
19-0702709 801 SOUTH GERMAN LN 2019-07-15 21:22:16.190 PROWLER
19-0702708 870 S SALEM RD 2019-07-15 21:20:27.800 DISCHARGING FIREWORKS
19-0702706 19-07870 404 S HARKRIDER DR 2019-07-15 21:13:36.600 PURSUIT
19-0702705 2202 TYLER ST 2019-07-15 21:04:30.253 SUSPICIOUS PERSON
19-0702703 4945 DOVER LN 2019-07-15 20:47:40.300 DISCHARGING FIREWORKS
19-0702702 1526 CLIFTON ST 2019-07-15 20:22:07.513 FIRE DEPT ASSIST
19-0702701 646 S HARKRIDER DR 2019-07-15 20:11:07.473 CHECKING PERSON
19-0702700 502 OAK ST 2019-07-15 20:10:51.140 SUSPICIOUS PERSON
19-0702699 2585 DONAGHEY AV 2019-07-15 19:45:14.123 SUSPICIOUS PERSON
19-0702697 2019-07-15 19:22:27.790 ATTEMPT TO CONTACT
19-0702696 2100 SALEM RD 2019-07-15 19:20:32.020 ABANDONED VEHICLE
19-0702695 1651 HAIRSTON AV 2019-07-15 19:06:25.840 TRESPASSING
19-0702694 1915 ARROWHEAD LN 2019-07-15 18:43:23.937 LOUD NOISE-MUSIC
19-0702693 19-07869 607 SOUTH GERMAN LN 2019-07-15 18:33:54.097 ACCIDENT - PRIVATE PROPERTY
19-0702692 1454 SCOTT ST 2019-07-15 18:33:19.760 SUSPICIOUS PERSON
19-0702690 1501 HOGAN LN 2019-07-15 18:26:00.040 TRAFFIC PROBLEM-CONTROL
19-0702689 1454 SCOTT ST 2019-07-15 18:22:17.850 SUSPICIOUS PERSON
19-0702688 1800 HAIRSTON AV 2019-07-15 18:18:53.190 CHECK ON THE WELFARE
19-0702686 1250 S AMITY RD 2019-07-15 17:58:34.993 SUPPLEMENT REPORT CALL
19-0702684 2100 SALEM RD 2019-07-15 17:31:29.887 STALLED VEHICLE
19-0702683 801 SOUTH GERMAN LN 2019-07-15 17:29:34.150 ATTEMPT TO CONTACT
19-0702681 19-07867 101 OAK ST 2019-07-15 16:58:01.793 ACCIDENT - PEDESTRIAN
19-0702679 1620 MIDDLE RD 2019-07-15 16:34:42.043 CRIMINAL MISCHIEF
19-0702678 1250 S AMITY RD 2019-07-15 16:23:12.740 FRAUD
19-0702677 2125 DAVE WARD DR 2019-07-15 16:17:57.153 ENDANGERING WELFARE OF MINOR
19-0702676 2204 STOUT ST 2019-07-15 16:13:06.757 CRIMINAL MISCHIEF
19-0702675 475 ROBINS ST 2019-07-15 16:10:49.707 ATTEMPT TO CONTACT
19-0702674 254 OAK ST 2019-07-15 16:09:26.070 NO CONTACT ORDER VIOLATION
19-0702673 4770 STOCKTON RD 2019-07-15 16:05:02.810 CIVIL MATTER
19-0702672 370 DENISON ST 2019-07-15 15:58:11.340 CIVIL STAND BY
19-0702671 2414 COLLEGE AV 2019-07-15 15:58:02.213 RECKLESS DRIVER
19-0702670 813 OAK ST 2019-07-15 15:56:20.343 SUSPICIOUS ACTIVITY
19-0702668 475 ROBINS ST 2019-07-15 15:45:55.560 FRAUD
19-0702666 1155 SKYLINE DR 2019-07-15 15:31:18.460 SUSPICIOUS PERSON
19-0702664 2255 E OAK ST 2019-07-15 15:22:35.217 OPEN DOOR/WINDOW/FENCE
19-0702663 19-07865 4206 PRINCE ST 2019-07-15 15:15:51.907 ACCIDENT - PRIVATE PROPERTY
19-0702661 19-07868 225 DAVIS ST 2019-07-15 15:10:31.887 ATTEMPT TO CONTACT
19-0702660 19-07864 1900 TYLER ST 2019-07-15 15:03:40.370 ENDANGERING WELFARE OF MINOR
19-0702659 19-07863 2730 DAVE WARD DR 2019-07-15 15:01:23.200 CRIMINAL MISCHIEF
19-0702657 19-07866 2385 PRINCE ST 2019-07-15 14:55:45.723 CHECK ON THE WELFARE
19-0702656 450 SKYLINE DR 2019-07-15 14:38:42.840 ATTEMPT TO CONTACT
19-0702654 2255 STURGIS RD 2019-07-15 14:29:17.913 ATTEMPT TO CONTACT
19-0702653 475 ROBINS ST 2019-07-15 14:26:33.067 BURGLARY
19-0702652 1701 DAVE WARD DR 2019-07-15 14:25:37.250 FRAUD
19-0702650 1105 PRAIRIE ST 2019-07-15 14:12:09.680 SUPPLEMENT REPORT CALL
19-0702649 2125 HARKRIDER ST 2019-07-15 14:11:48.400 CHECKING VEHICLE
19-0702648 1485 JOYNER DR 2019-07-15 14:10:42.523 THEFT OF PROPERTY
19-0702647 19-07862 2525 EIGHTEEN LP 2019-07-15 14:05:36.683 BREAKING OR ENTERING
19-0702646 1275 EXCHANGE AV 2019-07-15 13:58:31.267 ANIMAL BITE
19-0702645 150 E OAK ST 2019-07-15 13:47:41.757 TRESPASSING
19-0702644 475 ROBINS ST 2019-07-15 13:46:28.547 CHECK ON THE WELFARE
19-0702643 475 ROBINS ST 2019-07-15 13:44:17.070 ATTEMPT TO CONTACT
19-0702642 3715 TYLER ST 2019-07-15 13:39:50.947 ATTEMPT TO CONTACT
19-0702639 2895 DAVE WARD DR 2019-07-15 13:34:42.063 ACCIDENT - PROPERTY DAMAGE
19-0702638 19-07860 132 EVE LN 2019-07-15 13:26:48.133 FRAUD
19-0702637 815 E OAK ST 2019-07-15 13:17:55.593 TRESPASSING
19-0702636 500 ELSINGER BLVD 2019-07-15 13:06:37.160 SUPPLEMENT REPORT CALL
19-0702635 19-07859 2130 HARKRIDER ST 2019-07-15 12:55:55.637 ACCIDENT - PRIVATE PROPERTY
19-0702634 48 BRIERWOOD CIR 2019-07-15 12:53:11.430 ANIMAL BITE
19-0702633 19-07858 1250 S AMITY RD 2019-07-15 12:52:18.063 FRAUD
19-0702632 1952 BRUCE ST 2019-07-15 12:49:15.603 SUPPLEMENT REPORT CALL
19-0702631 1807 HWY 300 2019-07-15 12:43:56.333 ATTEMPT TO CONTACT
19-0702629 1600 WASHINGTON AV 2019-07-15 12:40:26.947 RECKLESS DRIVER
19-0702627 1080 FENDLEY DR 2019-07-15 12:19:36.770 SUSPICIOUS PERSON
19-0702626 1080 FENDLEY DR 2019-07-15 12:19:32.247 SUSPICIOUS ACTIVITY
19-0702625 1003 MUSEUM RD 2019-07-15 12:16:26.793 FRAUD
19-0702624 19-07857 3675 IRBY DR 2019-07-15 12:07:48.510 HARASSING COMMUNICATIONS
19-0702623 2270 MEADOWLAKE RD 2019-07-15 12:06:58.480 CHECK ON THE WELFARE
19-0702621 126 OAK ST 2019-07-15 12:00:50.180 DISTURBANCE
19-0702620 5120 BURNT PINE DR 2019-07-15 11:54:20.503 SERVING SUBPOENA
19-0702619 2900 SADDLETOP RD 2019-07-15 11:52:58.493 SUPPLEMENT REPORT CALL
19-0702617 3100 IRBY DR 2019-07-15 11:30:03.250 CIVIL MATTER
19-0702615 407 OAK ST 2019-07-15 11:26:37.860 LOUD NOISE-MUSIC
19-0702613 19-07856 811 NORTH CREEK DR 2019-07-15 11:17:07.223 ACCIDENT - PRIVATE PROPERTY
19-0702612 2010 RICH SMITH LN 2019-07-15 11:16:00.533 VEHICLE TOW
19-0702610 1105 PRAIRIE ST 2019-07-15 11:12:34.020 ATTEMPT TO CONTACT
19-0702608 19-07855 707 ROBINS ST 2019-07-15 11:03:06.910 ACCIDENT - PRIVATE PROPERTY
19-0702607 19-07854 1171 E OAK ST 2019-07-15 10:42:20.883 ACCIDENT - PROPERTY DAMAGE
19-0702604 1275 EXCHANGE AV 2019-07-15 10:37:06.697 SUPPLEMENT REPORT CALL
19-0702603 475 ROBINS ST 2019-07-15 10:35:15.517 ATTEMPT TO CONTACT
19-0702600 755 CHERUB DR 2019-07-15 10:09:04.913 ATTEMPT TO CONTACT
19-0702598 911 OAK ST 2019-07-15 09:50:25.900 VEHICLE TOW
19-0702596 19-07852 1100 E DAVE WARD DR 2019-07-15 09:48:37.903 ACCIDENT - PROPERTY DAMAGE
19-0702595 19-07851 2501 DAVE WARD DR 2019-07-15 09:44:46.833 THEFT OF PROPERTY
19-0702594 19-07850 3576 PRINCE ST 2019-07-15 09:40:48.370 ACCIDENT - PROPERTY DAMAGE
19-0702592 350 S DONAGHEY AV 2019-07-15 09:30:23.430 REPOSSESSION
19-0702590 6 S HAMPTON CV 2019-07-15 09:15:04.583 ANIMAL BITE
19-0702586 1105 PRAIRIE ST 2019-07-15 09:06:28.253 SERVING SUBPOENA
19-0702585 766 HARKRIDER ST 2019-07-15 09:06:00.080 CITIZEN ASSIST
19-0702580 19-07849 730 ENTERPRISE AV 2019-07-15 08:46:39.570 CRIMINAL MISCHIEF
19-0702578 401 2ND ST 2019-07-15 08:44:35.753 BATTERY REPORT
19-0702577 101 OAK ST 2019-07-15 08:43:13.370 SUSPICIOUS ACTIVITY
19-0702574 1250 S AMITY RD 2019-07-15 07:55:05.883 TERRORISTIC THREATENING
19-0702573 1104 E OAK ST 2019-07-15 07:11:20.333 ALARM - BANK
19-0702572 102 DONAGHEY AV 2019-07-15 07:05:35.227 TRAFFIC LIGHT PROBLEM
19-0702571 475 ROBINS ST 2019-07-15 06:48:53.533 DISTURBANCE
19-0702569 475 ROBINS ST 2019-07-15 06:35:56.507 DOMESTIC DISTURBANCE
19-0702568 500 SOUTH GERMAN LN 2019-07-15 06:30:24.007 MISDEMEANOR WARRANT SERVICE
19-0702567 350 E OAK ST 2019-07-15 06:21:51.857 SUSPICIOUS PERSON
19-0702564 1104 E OAK ST 2019-07-15 05:18:50.657 ALARM
19-0702563 401 2ND ST 2019-07-15 04:39:51.110 SUPPLEMENT REPORT CALL
19-0702562 475 ROBINS ST 2019-07-15 04:07:45.060 ATTEMPT TO CONTACT
19-0702561 2840 DAVE WARD DR 2019-07-15 04:07:08.260 DOMESTIC DISTURBANCE
19-0702560 1045 JIM'S LN 2019-07-15 04:04:42.943 CHECK ON THE WELFARE
19-0702558 19-07847 401 2ND ST 2019-07-15 03:41:35.237 CRIMINAL MISCHIEF
19-0702557 105 DAVIS ST 2019-07-15 03:17:58.623 ATTEMPT TO CONTACT
19-0702556 475 ROBINS ST 2019-07-15 03:11:45.140 PROWLER
19-0702555 2525 BLANEY HILL RD 2019-07-15 03:09:42.837 AGENCY ASSIST
19-0702554 870 ENTERPRISE AV 2019-07-15 02:22:45.520 PURSUIT DRILL
19-0702551 1405 S DONAGHEY AV 2019-07-15 00:54:04.857 HARASSING COMMUNICATIONS
19-0702549 218 SALEM RD 2019-07-15 00:42:06.613 CHECKING VEHICLE
19-0702547 19-07844 475 ROBINS ST 2019-07-14 23:55:57.907 DISTURBANCE
19-0702546 19-07845 475 ROBINS ST 2019-07-14 23:42:08.090 AGENCY ASSIST
19-0702544 2890 DAVE WARD DR 2019-07-14 23:24:58.127 CHECKING PERSON
19-0702543 475 ROBINS ST 2019-07-14 23:03:12.287 PROWLER
19-0702542 19-07842 711 S DAVIS ST 2019-07-14 22:37:14.447 DOMESTIC DISTURBANCE
19-0702540 3950 DAVE WARD DR 2019-07-14 22:31:15.190 LOITERING
19-0702538 19-07843 1161 OLD MORRILTON HWY 2019-07-14 22:26:35.060 ACCIDENT - PROPERTY DAMAGE
19-0702534 429 ANGUS ST 2019-07-14 21:54:25.970 CHECK ON THE WELFARE
19-0702531 19-07841 1225 WOODSIDE DR 2019-07-14 21:39:23.150 DOMESTIC DISTURBANCE
19-0702529 1238 MCNUTT RD 2019-07-14 20:50:49.143 ALARM
19-0702524 3900 DAVE WARD DR 2019-07-14 20:12:00.317 ATTEMPT TO CONTACT
19-0702523 401 2ND ST 2019-07-14 20:05:17.850 ATTEMPT TO CONTACT
19-0702522 19-07839 1910 DAVE WARD DR 2019-07-14 19:54:37.713 DOMESTIC DISTURBANCE
19-0702520 2550 PRINCE ST 2019-07-14 19:28:55.923 SUSPICIOUS PERSON
19-0702519 19-07840 1405 S DONAGHEY AV 2019-07-14 19:07:45.360 HARASSING COMMUNICATIONS
19-0702518 3333 DAVE WARD DR 2019-07-14 18:35:31.120 CHECK ON THE WELFARE
19-0702517 3900 DAVE WARD DR 2019-07-14 18:26:23.477 ATTEMPT TO CONTACT
19-0702516 867 FENDLEY DR 2019-07-14 18:25:41.497 REPOSSESSION
19-0702515 19-07838 1412 COLLEGE AV 2019-07-14 18:17:41.077 ACCIDENT - PROPERTY DAMAGE
19-0702514 475 ROBINS ST 2019-07-14 17:27:42.753 CHECK ON THE WELFARE
19-0702513 450 SKYLINE DR 2019-07-14 17:26:34.517 HARASSING COMMUNICATIONS
19-0702512 19-07837 500 SOUTH GERMAN LN 2019-07-14 17:24:01.620 MISDEMEANOR WARRANT SERVICE
19-0702511 1304 OAK ST 2019-07-14 17:13:04.107 ALARM
19-0702510 245 FARRIS RD 2019-07-14 16:53:00.827 CONTRIBUTE TO DELINQUENCY OF MINOR
19-0702509 1105 SKYLINE DR 2019-07-14 16:29:28.923 ATTEMPT TO CONTACT
19-0702507 135 S ASH ST 2019-07-14 16:21:50.920 WEATHER RELATED CALLS-PROBLEMS
19-0702506 1940 HENRY ST 2019-07-14 15:55:53.047 911 HANGUP CALL
19-0702505 1001 FRONT ST 2019-07-14 15:45:09.840 ALARM - BANK
19-0702504 1930 RICH SMITH LN 2019-07-14 15:31:20.663 PARKING VIOLATION
19-0702503 19-07836 3800 COLLEGE AV 2019-07-14 15:08:17.650 CHECKING PERSON
19-0702499 19-07835 504 E OAK ST 2019-07-14 14:32:38.440 ACCIDENT - PROPERTY DAMAGE
19-0702497 1825 JAGUAR DR 2019-07-14 14:16:20.220 DISCHARGING FIREWORKS
19-0702496 120 S MITCHELL ST 2019-07-14 14:00:37.163 ATTEMPT TO CONTACT
19-0702494 19-07834 855 SALEM RD 2019-07-14 13:52:30.190 ACCIDENT - PRIVATE PROPERTY
19-0702491 120 S MITCHELL ST 2019-07-14 13:21:07.510 CHECK ON THE WELFARE
19-0702489 150 E OAK ST 2019-07-14 13:00:39.067 SUPPLEMENT REPORT CALL
19-0702488 2900 PRINCE ST 2019-07-14 12:46:47.957 CHECK ON THE WELFARE
19-0702487 401 2ND ST 2019-07-14 12:14:48.010 SUPPLEMENT REPORT CALL
19-0702485 1930 HENRY ST 2019-07-14 11:51:30.677 911 HANGUP CALL
19-0702484 19-07832 401 2ND ST 2019-07-14 11:43:57.697 BATTERY REPORT
19-0702483 701 1ST AV 2019-07-14 11:23:54.150 BURGLARY
19-0702482 19-07831 1010 BRONZE TRL 2019-07-14 11:18:56.203 FRAUD
19-0702481 19-07830 912 HEATHER CIR 2019-07-14 11:07:44.620 BREAKING OR ENTERING
19-0702480 19-07833 201 SKYLINE DR 2019-07-14 11:05:25.780 TERRORISTIC THREATENING
19-0702479 1065 SKYLINE DR 2019-07-14 10:47:16.110 CHECK ON THE WELFARE
19-0702478 850 OAK ST 2019-07-14 10:44:02.937 CIVIL MATTER
19-0702477 19-07828 2803 WILLS CT 2019-07-14 10:35:44.310 BREAKING OR ENTERING
19-0702476 1440 DAVE WARD DR 2019-07-14 10:33:15.343 LOST PROPERTY
19-0702475 19-07829 1105 SKYLINE DR 2019-07-14 10:31:50.247 ATTEMPT TO CONTACT
19-0702472 19-07827 894 HEATHER CIR 2019-07-14 09:12:55.007 BREAKING OR ENTERING
19-0702471 19-07825 2455 VILLAGE COURT DR 2019-07-14 08:52:19.837 ACCIDENT - PERSONAL INJURY
19-0702470 19-07824 2703 TIMBERPEG CT 2019-07-14 08:41:43.743 BREAKING OR ENTERING
19-0702469 4095 PRINCE ST 2019-07-14 08:32:07.647 CHECKING PERSON
19-0702468 1420 ARDEN LN 2019-07-14 08:12:26.267 CHECK ON THE WELFARE
19-0702465 255 GREAT FALLS 2019-07-14 07:36:34.063 ATTEMPT TO CONTACT
19-0702464 2923 ADAM ST 2019-07-14 07:06:51.220 BREAKING OR ENTERING
19-0702463 19-07823 50 SHADY VALLEY DR 2019-07-14 07:01:36.130 BREAKING OR ENTERING
19-0702462 101 CLUB LN 2019-07-14 06:14:30.250 SUSPICIOUS ACTIVITY
19-0702461 19-07822 226 HARKRIDER ST 2019-07-14 05:50:48.923 STALLED VEHICLE
19-0702460 1229 CLIFTON ST 2019-07-14 05:33:36.603 HARASSMENT
19-0702459 3700 JEANNA DR 2019-07-14 05:17:26.527 AGENCY ASSIST
19-0702457 520 MONROE ST 2019-07-14 05:04:47.597 UNKNOWN TROUBLE
19-0702456 2890 DAVE WARD DR 2019-07-14 04:40:53.107 SUSPICIOUS ACTIVITY
19-0702455 475 ROBINS ST 2019-07-14 04:23:24.873 ATTEMPT TO CONTACT
19-0702454 1104 E OAK ST 2019-07-14 04:21:26.530 ALARM
19-0702453 475 ROBINS ST 2019-07-14 03:55:17.930 AGENCY ASSIST
19-0702451 19-07821 370 DENISON ST 2019-07-14 03:46:34.570 DOMESTIC DISTURBANCE
19-0702450 601 DAVE WARD DR 2019-07-14 03:43:20.867 CHECKING PERSON
19-0702447 605 1ST AV 2019-07-14 03:15:25.160 ATTEMPT TO CONTACT
19-0702446 1900 HOGAN LN 2019-07-14 03:08:39.150 DOMESTIC DISTURBANCE
19-0702444 2050 DAVE WARD DR 2019-07-14 02:05:54.940 ARMED SUBJECT
19-0702443 19-07818 410 6TH ST 2019-07-14 02:03:27.520 DOMESTIC DISTURBANCE
19-0702440 646 S HARKRIDER DR 2019-07-14 01:43:09.837 CHECKING VEHICLE
19-0702439 600 5TH AV 2019-07-14 01:22:00.800 CHECKING PERSON
19-0702438 736 3RD AV 2019-07-14 01:01:23.947 HARASSMENT
19-0702436 101 OAK ST 2019-07-14 00:09:07.640 CHECKING PERSON
19-0702435 1275 EXCHANGE AV 2019-07-13 23:34:17.897 ATTEMPT TO CONTACT
19-0702433 19-07816 101 OAK ST 2019-07-13 23:24:14.300 INTOXICATED PERSON
19-0702432 1105 E OAK ST 2019-07-13 23:17:05.343 INTOXICATED PERSON
19-0702431 19-07814 205 E OAK ST 2019-07-13 23:11:55.570 ROBBERY
19-0702430 1315 HILLCREST DR 2019-07-13 22:58:19.187 RUNAWAY
19-0702429 5090 LOST CANYON DR 2019-07-13 22:54:33.907 LOUD NOISE-MUSIC
19-0702428 3075 PEBBLE BEACH DR 2019-07-13 22:45:03.207 LOUD NOISE-MUSIC
19-0702427 1275 EXCHANGE AV 2019-07-13 22:43:15.550 SUPPLEMENT REPORT CALL
19-0702426 1310 CLIFTON ST 2019-07-13 22:41:40.563 BURGLARY
19-0702425 1345 E OAK ST 2019-07-13 22:41:07.130 ALARM
19-0702422 501 ELSINGER BLVD 2019-07-13 22:27:11.963 RECKLESS DRIVER
19-0702420 201 SKYLINE DR 2019-07-13 22:20:21.603 ALARM
19-0702419 1750 VILLAGE COMMONS DR 2019-07-13 22:14:16.797 DOMESTIC DISTURBANCE
19-0702417 350 E OAK ST 2019-07-13 22:02:05.430 ATTEMPT TO CONTACT
19-0702416 3196 COLLEGE AV 2019-07-13 21:48:23.073 INTOXICATED PERSON
19-0702415 1900 TYLER ST 2019-07-13 21:33:46.423 SUSPICIOUS PERSON
19-0702414 19-07813 1500 HARKRIDER ST 2019-07-13 21:27:42.723 SUSPICIOUS PERSON
19-0702413 2213 TYLER ST 2019-07-13 21:23:23.653 SUSPICIOUS PERSON
19-0702412 900 CORDOBA DR 2019-07-13 21:18:14.507 LOUD NOISE-MUSIC
19-0702411 500 REEDY RD 2019-07-13 21:13:20.460 CHECKING PERSON
19-0702410 475 ROBINS ST 2019-07-13 21:09:27.287 ATTEMPT TO CONTACT
19-0702408 19-07812 375 E OAK ST 2019-07-13 21:04:48.543 FRAUD
19-0702406 19-07811 1275 EXCHANGE AV 2019-07-13 20:48:22.740 LOST PROPERTY
19-0702402 1000 DAVIS ST 2019-07-13 20:13:46.507 RECKLESS DRIVER
19-0702401 102 OAK ST 2019-07-13 19:37:57.190 DISTURBANCE
19-0702400 19-07810 1600 E OAK ST 2019-07-13 19:34:05.387 ACCIDENT - PERSONAL INJURY
19-0702398 19-07809 450 SKYLINE DR 2019-07-13 19:16:10.010 DISTURBANCE
19-0702397 19-07808 100 BROOKSIDE DR 2019-07-13 19:04:41.140 BURGLARY
19-0702396 19-07807 46 BRIER SPRINGS DR 2019-07-13 18:32:41.990 THEFT OF VEHICLE
19-0702395 475 ROBINS ST 2019-07-13 18:22:44.000 ATTEMPT TO CONTACT
19-0702394 19-07806 601 ELSINGER BLVD 2019-07-13 18:19:54.440 ATTEMPT TO CONTACT
19-0702393 1750 VILLAGE COMMONS DR 2019-07-13 18:10:58.670 ALARM
19-0702391 2105 MEADOWLAKE RD 2019-07-13 17:51:44.687 CHECK ON THE WELFARE
19-0702390 2125 HARKRIDER ST 2019-07-13 17:51:25.247 HARASSING COMMUNICATIONS
19-0702389 601 ELSINGER BLVD 2019-07-13 17:46:47.317 ATTEMPT TO CONTACT
19-0702387 700 ELSINGER BLVD 2019-07-13 17:05:54.763 SHOPLIFTING
19-0702385 3002 PRINCE ST 2019-07-13 17:02:33.957 PARKING VIOLATION
19-0702384 19-07805 700 ELSINGER BLVD 2019-07-13 16:54:24.287 ACCIDENT - PRIVATE PROPERTY
19-0702382 1 MIDDLE RD 2019-07-13 16:30:46.207 STALLED VEHICLE
19-0702381 19-07804 2310 ROBINSON AV 2019-07-13 15:45:18.357 FIGHT
19-0702380 650 ROBINS ST 2019-07-13 15:31:48.837 ALARM
19-0702379 1008 E OAK ST 2019-07-13 15:20:50.497 ALARM
19-0702378 1104 E OAK ST 2019-07-13 15:15:15.610 ALARM - BANK
19-0702376 19-07803 1115 E OAK ST 2019-07-13 14:46:39.503 FRAUD
19-0702375 19-07802 3955 SYDNEY DR 2019-07-13 14:45:32.113 ACCIDENT - PROPERTY DAMAGE
19-0702373 405 SHANNON CIR 2019-07-13 14:27:51.430 CIVIL STAND BY
19-0702372 1685 E OAK ST 2019-07-13 14:01:00.533 ATTEMPT TO CONTACT
19-0702371 1600 E OAK ST 2019-07-13 13:49:17.983 BATTERY REPORT
19-0702370 2102 HAIRSTON AV 2019-07-13 13:27:28.697 FOUND PROPERTY
19-0702369 19-07800 1100 BRUCE ST 2019-07-13 13:10:35.860 ACCIDENT - HIT AND RUN
19-0702368 19-07801 960 MATTISON RD 2019-07-13 13:02:24.333 ATTEMPT TO CONTACT
19-0702367 19-07798 1003 MUSEUM RD 2019-07-13 12:40:52.830 THEFT OF VEHICLE
19-0702366 3065 PEBBLE BEACH DR 2019-07-13 12:33:21.600 ATTEMPT TO CONTACT
19-0702365 2170 ROSEMARY DR 2019-07-13 12:22:46.660 HARASSMENT
19-0702364 19-07799 2510 PRINCE ST 2019-07-13 12:19:51.563 FIRE DEPT ASSIST
19-0702363 19-07797 850 WALNUT ST 2019-07-13 12:16:44.610 ACCIDENT - PROPERTY DAMAGE
19-0702362 1215 STANLEY RUSS RD 2019-07-13 12:12:04.357 FOUND PROPERTY
19-0702361 401 2ND ST 2019-07-13 12:03:18.960 ATTEMPT TO CONTACT
19-0702360 380 HARKRIDER ST 2019-07-13 11:58:59.000 ATTEMPT TO CONTACT
19-0702358 1435 JOYNER DR 2019-07-13 11:51:06.863 CHECK ON THE WELFARE
19-0702356 2510 PRINCE ST 2019-07-13 11:49:38.550 SUSPICIOUS PACKAGE
19-0702354 432 6TH ST 2019-07-13 11:32:38.150 CHECK ON THE WELFARE
19-0702353 145 GREY FOX DR 2019-07-13 11:20:49.780 SUSPICIOUS PERSON
19-0702352 1105 PRAIRIE ST 2019-07-13 11:14:40.447 ATTEMPT TO CONTACT
19-0702349 1105 PRAIRIE ST 2019-07-13 10:56:40.607 ATTEMPT TO CONTACT
19-0702346 19-07796 2665 DONAGHEY AV 2019-07-13 10:33:38.750 ACCIDENT - PRIVATE PROPERTY
19-0702345 475 ROBINS ST 2019-07-13 10:33:05.477 SUSPICIOUS PERSON
19-0702343 1717 SIMMS ST 2019-07-13 10:19:56.267 911 HANGUP CALL
19-0702342 265 2ND ST 2019-07-13 10:15:06.980 SUSPICIOUS PERSON
19-0702339 1400 HUEBNER ST 2019-07-13 10:03:43.727 DOMESTIC DISTURBANCE
19-0702338 802 FRONT ST 2019-07-13 09:45:41.143 CHECKING PERSON
19-0702335 19-07795 3155 TYLER ST 2019-07-13 09:24:58.373 ABANDONED VEHICLE
19-0702334 500 LOCUST AV 2019-07-13 09:09:21.023 PURSUIT DRILL
19-0702332 475 ROBINS ST 2019-07-13 08:02:02.610 ATTEMPT TO CONTACT
19-0702330 4801 COLLEGE AV 2019-07-13 07:54:57.757 LOUD NOISE-MUSIC
19-0702329 1050 MARKHAM ST 2019-07-13 07:54:20.987 CHECK ON THE WELFARE
19-0702323 1500 HARKRIDER ST 2019-07-13 06:17:20.637 CHECK ON THE WELFARE
19-0702322 330 ESPLANADE AV 2019-07-13 05:48:05.080 ALARM
19-0702321 19-07793 2890 DAVE WARD DR 2019-07-13 05:41:53.373 ROBBERY
19-0702320 1400 MONTANA DR 2019-07-13 05:02:33.000 CHECKING PERSON
19-0702318 1405 S DONAGHEY AV 2019-07-13 03:59:26.373 RECKLESS DRIVER
19-0702317 2901 COLLEGE AV 2019-07-13 03:38:32.920 CHECKING VEHICLE
19-0702316 260 SALEM RD 2019-07-13 03:32:21.263 CHECKING VEHICLE
19-0702314 1938 SCOTT ST 2019-07-13 03:00:29.440 SUSPICIOUS PERSON
19-0702313 1535 JOHN ED CIR 2019-07-13 02:59:36.743 ALARM
19-0702312 2130 RAINWOOD AV 2019-07-13 02:35:49.867 DOMESTIC DISTURBANCE
19-0702311 19-07790 801 SOUTH GERMAN LN 2019-07-13 02:32:25.737 CHECK ON THE WELFARE
19-0702309 801 SOUTH GERMAN LN 2019-07-13 02:09:04.520 UNKNOWN TROUBLE
19-0702307 1402 HARKRIDER ST 2019-07-13 01:54:30.340 STALLED VEHICLE
19-0702306 5300 BURNT PINE DR 2019-07-13 01:39:55.050 OPEN DOOR/WINDOW/FENCE
19-0702305 2810 WESTPORT CIR 2019-07-13 01:33:21.707 TERRORISTIC THREATENING
19-0702304 201 SKYLINE DR 2019-07-13 01:22:51.480 ALARM
19-0702303 530 S DONAGHEY AV 2019-07-13 00:47:54.997 LOUD NOISE-MUSIC
19-0702302 475 ROBINS ST 2019-07-13 00:47:34.030 SHOTS FIRED
19-0702301 304 FAIRWAY DR 2019-07-13 00:46:56.327 DISCHARGING FIREWORKS
19-0702300 1130 WINEBERRY RD 2019-07-13 00:43:45.147 SUSPICIOUS PERSON
19-0702299 104 CLUB LN 2019-07-13 00:42:56.040 SHOTS FIRED
19-0702298 19-07789 1 CADRON SETTLEMENT PARK RD 2019-07-13 00:30:14.210 CHECKING VEHICLE
19-0702297 19-07788 1622 BRUCE ST 2019-07-13 00:11:51.777 SUSPICIOUS PERSON
19-0702296 1050 FRONT ST 2019-07-13 00:07:32.127 ATTEMPT TO CONTACT
19-0702294 3900 DAVE WARD DR 2019-07-12 23:33:05.427 DISTURBANCE
19-0702292 1155 SKYLINE DR 2019-07-12 23:14:38.037 CHECK ON THE WELFARE
19-0702291 8 EVERGREEN DR 2019-07-12 23:11:28.510 SUSPICIOUS VEHICLE
19-0702290 19-07787 1775 OLD MORRILTON HWY 2019-07-12 23:06:29.067 SUSPICIOUS PERSON
19-0702289 701 S AMITY RD 2019-07-12 22:56:56.230 RECKLESS DRIVER
19-0702287 715 FAIRVIEW ST 2019-07-12 22:44:42.857 DISCHARGING FIREWORKS
19-0702286 19-07786 401 2ND ST 2019-07-12 22:42:13.470 DOMESTIC DISTURBANCE
19-0702284 19-07785 2799 SALEM RD 2019-07-12 22:38:44.537 PROPERTY DAMAGE
19-0702283 1600 STANLEY RUSS RD 2019-07-12 22:38:21.340 CRIMINAL MISCHIEF
19-0702279 1890 E OAK ST 2019-07-12 22:02:23.207 RECKLESS DRIVER
19-0702278 1335 SUNSET DR 2019-07-12 22:01:27.670 ARMED SUBJECT
19-0702277 1275 EXCHANGE AV 2019-07-12 21:59:07.533 SUSPICIOUS VEHICLE
19-0702272 1135 ASH ST 2019-07-12 21:34:46.117 BURGLARY
19-0702267 302 S SALEM RD 2019-07-12 21:16:36.730 AGENCY ASSIST
19-0702266 1004 OAK ST 2019-07-12 21:11:59.830 SUSPICIOUS PERSON
19-0702265 1702 CLIFTON ST 2019-07-12 20:58:23.040 DISCHARGING FIREWORKS
19-0702264 1501 TYLER ST 2019-07-12 20:45:33.940 DISCHARGING FIREWORKS
19-0702262 650 ELSINGER BLVD 2019-07-12 20:45:00.680 SUPPLEMENT REPORT CALL
19-0702260 2500 DAVE WARD DR 2019-07-12 20:27:26.940 CHECK ON THE WELFARE
19-0702259 19-07783 500 SOUTH GERMAN LN 2019-07-12 20:19:00.420 MISDEMEANOR WARRANT SERVICE
19-0702258 19-07784 1751 OLD MORRILTON HWY 2019-07-12 20:08:48.973 ACCIDENT - PROPERTY DAMAGE
19-0702257 875 SKYLINE DR 2019-07-12 20:00:14.030 ATTEMPT TO CONTACT
19-0702256 1104 E OAK ST 2019-07-12 19:33:47.903 ALARM - BANK
19-0702255 801 FRONT ST 2019-07-12 19:27:15.297 DISTURBANCE
19-0702252 3700 COLLEGE AV 2019-07-12 19:19:44.737 ALARM
19-0702251 1155 SKYLINE DR 2019-07-12 19:14:57.787 SUSPICIOUS PERSON
19-0702250 3186 SCHICHTL DR 2019-07-12 19:04:33.237 AGENCY ASSIST
19-0702248 1620 MIDDLE RD 2019-07-12 18:46:50.277 SUSPICIOUS PERSON
19-0702247 2102 WEST ST 2019-07-12 18:45:54.240 911 HANGUP CALL
19-0702246 609 LOCUST AV 2019-07-12 18:26:15.263 LOITERING
19-0702245 760 HUNTINGTON LN 2019-07-12 18:24:23.817 ALARM
19-0702243 34 AZALEA LP 2019-07-12 18:21:30.610 INDECENT EXPOSURE
19-0702241 1104 E OAK ST 2019-07-12 18:10:56.200 ALARM - BANK
19-0702240 1000 EAST GERMAN LN 2019-07-12 18:04:18.007 ATTEMPT TO CONTACT
19-0702239 19-07782 1325 OLD MORRILTON HWY 2019-07-12 18:02:02.550 ACCIDENT - PROPERTY DAMAGE
19-0702238 19-07780 504 E OAK ST 2019-07-12 17:47:50.910 ACCIDENT - PROPERTY DAMAGE
19-0702237 125 I40EB 2019-07-12 17:44:02.353 ACCIDENT - PROPERTY DAMAGE
19-0702236 19-07777 301 DONAGHEY AV 2019-07-12 17:37:22.790 ACCIDENT - PROPERTY DAMAGE
19-0702234 19-07778 655 ELSINGER BLVD 2019-07-12 17:32:52.580 ACCIDENT - PRIVATE PROPERTY
19-0702233 600 5TH AV 2019-07-12 17:31:21.037 CHECK ON THE WELFARE
19-0702232 19-07781 475 ROBINS ST 2019-07-12 17:30:54.847 ATTEMPT TO CONTACT
19-0702231 1104 E OAK ST 2019-07-12 17:23:10.633 ALARM - BANK
19-0702230 19-07779 1651 HAIRSTON AV 2019-07-12 17:03:24.200 RUNAWAY
19-0702229 19-07775 1600 E OAK ST 2019-07-12 17:02:53.653 ACCIDENT - PROPERTY DAMAGE
19-0702228 19-07774 1000 MORNINGSIDE DR 2019-07-12 17:01:17.777 HARASSMENT
19-0702227 801 ELSINGER BLVD 2019-07-12 17:00:18.900 FRAUD
19-0702226 1200 DAVE WARD DR 2019-07-12 16:52:35.047 RECKLESS DRIVER
19-0702223 1600 WASHINGTON AV 2019-07-12 16:39:03.233 SUPPLEMENT REPORT CALL
19-0702221 1104 E OAK ST 2019-07-12 16:32:54.853 ALARM - BANK
19-0702219 2640 PRINCE ST 2019-07-12 16:15:44.607 RECKLESS DRIVER
19-0702217 3100 CLEBURNE CV 2019-07-12 16:12:50.760 ALARM
19-0702215 265 S ASH ST 2019-07-12 16:09:36.443 911 HANGUP CALL
19-0702214 2019-07-12 16:05:19.870 FRAUD
19-0702212 1651 HAIRSTON AV 2019-07-12 15:53:48.457 CIVIL MATTER
19-0702210 500 SOUTH GERMAN LN 2019-07-12 15:43:38.867 MISDEMEANOR WARRANT SERVICE
19-0702208 19-07771 1199 FENDLEY DR 2019-07-12 15:38:36.587 ACCIDENT - PROPERTY DAMAGE
19-0702206 19-07773 755 CHERUB DR 2019-07-12 15:26:59.490 INTERFERENCE WITH CUSTODY
19-0702204 1500 HARKRIDER ST 2019-07-12 14:54:32.977 STALLED VEHICLE
19-0702200 19-07769 84 MILL POND RD 2019-07-12 14:35:31.283 ATTEMPT TO CONTACT
19-0702199 1390 OLD MORRILTON HWY 2019-07-12 14:35:22.157 ATTEMPT TO CONTACT
19-0702198 19-07768 500 FARRIS RD 2019-07-12 14:21:43.497 ACCIDENT - PROPERTY DAMAGE
19-0702196 545 SALEM RD 2019-07-12 14:12:29.210 ACCIDENT - PROPERTY DAMAGE
19-0702195 19-07767 3900 DAVE WARD DR 2019-07-12 13:45:00.670 ACCIDENT - PRIVATE PROPERTY
19-0702194 1110 SPATZ CIR 2019-07-12 13:41:06.603 ALARM
19-0702193 129 I40EB 2019-07-12 13:35:48.690 TRAFFIC PROBLEM-CONTROL
19-0702192 19-07766 607 OAK ST 2019-07-12 13:30:49.510 ACCIDENT - HIT AND RUN
19-0702191 1800 SOUTH BLVD 2019-07-12 13:16:24.767 AGENCY ASSIST
19-0702190 1104 E OAK ST 2019-07-12 13:13:02.183 ATTEMPT TO CONTACT
19-0702188 500 SOUTH GERMAN LN 2019-07-12 12:56:41.280 MISDEMEANOR WARRANT SERVICE
19-0702187 620 CHESTNUT ST 2019-07-12 12:52:00.527 FRAUD
19-0702186 19-07765 2501 DAVE WARD DR 2019-07-12 12:41:10.343 DISTURBANCE
19-0702185 2215 REMINGTON RD 2019-07-12 12:13:35.923 CIVIL MATTER
19-0702184 19-07763 2603 DAVE WARD DR 2019-07-12 12:11:06.740 BATTERY REPORT
19-0702183 16 RICHLAND HILLS DR 2019-07-12 12:05:58.573 ALARM
19-0702182 19-07762 501 S SALEM RD 2019-07-12 12:05:18.730 ACCIDENT - PERSONAL INJURY
19-0702181 1090 COLLIER DR 2019-07-12 12:04:54.910 CIVIL MATTER
19-0702180 19-07764 1701 DONAGHEY AV 2019-07-12 12:03:00.203 BATTERY REPORT
19-0702179 19-07770 185 MERLOT DR 2019-07-12 11:55:06.070 ATTEMPT TO CONTACT
19-0702178 19-07760 900 CHESTNUT ST 2019-07-12 11:47:01.280 ACCIDENT - HIT AND RUN
19-0702176 6 W J SOWDER DR 2019-07-12 11:40:12.153 FOUND PROPERTY
19-0702175 740 S SALEM RD 2019-07-12 11:38:54.823 DISTURBANCE
19-0702174 19-07759 1405 DAVE WARD DR 2019-07-12 11:35:49.930 ACCIDENT - PROPERTY DAMAGE
19-0702169 1104 E OAK ST 2019-07-12 11:09:31.043 ATTEMPT TO CONTACT
19-0702168 550 E DAVE WARD DR 2019-07-12 11:09:05.193 FIRE DEPT ASSIST
19-0702167 505 3RD AV 2019-07-12 11:07:40.907 HARASSMENT
19-0702165 100 BROOKSIDE DR 2019-07-12 10:56:11.773 CIVIL STAND BY
19-0702163 2810 BRUCE ST 2019-07-12 10:41:20.163 SUPPLEMENT REPORT CALL
19-0702161 550 E DAVE WARD DR 2019-07-12 10:29:15.353 SUSPICIOUS PACKAGE
19-0702160 2270 MEADOWLAKE RD 2019-07-12 10:27:14.763 AGENCY ASSIST
19-0702159 401 2ND ST 2019-07-12 10:27:01.723 ATTEMPT TO CONTACT
19-0702158 1152 WOODSIDE DR 2019-07-12 10:24:29.357 ATTEMPT TO CONTACT
19-0702157 300 S DONAGHEY AV 2019-07-12 10:17:21.633 SUPPLEMENT REPORT CALL
19-0702156 1500 SOUTH BLVD 2019-07-12 10:13:57.567 ATTEMPT TO CONTACT
19-0702155 601 MONROE ST 2019-07-12 10:04:22.970 ATTEMPT TO CONTACT
19-0702154 475 ROBINS ST 2019-07-12 10:00:01.030 CHECK ON THE WELFARE
19-0702153 19-07756 1267 HARTON ST 2019-07-12 09:35:40.047 FRAUD
19-0702152 19-07757 1525 CLIFTON ST 2019-07-12 09:26:13.203 ACCIDENT - PROPERTY DAMAGE
19-0702150 466 HARKRIDER ST 2019-07-12 09:18:38.723 FIRE DEPT ASSIST
19-0702149 2030 OLD MORRILTON HWY 2019-07-12 09:17:13.907 ABANDONED VEHICLE
19-0702143 1152 WOODSIDE DR 2019-07-12 08:46:32.847 CHECK ON THE WELFARE
19-0702142 19-07755 3985 RUPERT DR 2019-07-12 08:43:35.643 BREAKING OR ENTERING
19-0702139 25 TUCKER CREEK RD 2019-07-12 08:19:57.127 ATTEMPT TO CONTACT
19-0702137 2105 DAVE WARD DR 2019-07-12 08:03:33.743 ALARM - HOLD UP or PANIC
19-0702135 19-07754 840 CRESTLINER DR 2019-07-12 07:41:32.320 BURGLARY
19-0702134 19-07753 1075 S HARKRIDER DR 2019-07-12 07:16:59.063 CHECK ON THE WELFARE
19-0702133 1220 WILLIAM J CLARK DR 2019-07-12 07:14:20.893 ALARM
19-0702132 260 SALEM RD 2019-07-12 05:10:58.993 SUSPICIOUS PERSON
19-0702131 800 S DONAGHEY AV 2019-07-12 04:51:34.773 STALLED VEHICLE
19-0702130 800 S DONAGHEY AV 2019-07-12 04:51:01.730 STALLED VEHICLE
19-0702129 19-07752 1104 E OAK ST 2019-07-12 04:20:03.603 ALARM
19-0702128 401 2ND ST 2019-07-12 03:28:42.677 DOMESTIC DISTURBANCE
19-0702127 525 SKYLINE DR 2019-07-12 03:23:49.787 SUSPICIOUS PERSON
19-0702125 2565 MORSE DR 2019-07-12 02:35:16.200 CITIZEN ASSIST
19-0702124 19-07751 401 2ND ST 2019-07-12 02:06:32.517 DOMESTIC DISTURBANCE
19-0702123 401 2ND ST 2019-07-12 01:32:52.240 CRIMINAL MISCHIEF
19-0702122 2205 DAVE WARD DR 2019-07-12 01:27:35.370 ALARM
19-0702119 1955 KEATHLEY DR 2019-07-12 00:52:39.653 SUPPLEMENT REPORT CALL
19-0702118 2890 DAVE WARD DR 2019-07-12 00:24:16.373 SHOTS FIRED
19-0702117 20 KINLEY DR 2019-07-12 00:20:43.867 HARASSMENT
19-0702116 19-07749 300 S DONAGHEY AV 2019-07-11 23:55:26.650 BATTERY REPORT
19-0702115 10 LOWER RIDGE RD 2019-07-11 23:51:49.497 CHECKING VEHICLE
19-0702113 19-07748 1955 KEATHLEY DR 2019-07-11 23:37:11.787 RUNAWAY
19-0702111 19-07747 557 FACTORY ST 2019-07-11 23:31:47.663 ACCIDENT - PROPERTY DAMAGE
19-0702110 999 ENTERPRISE AV 2019-07-11 23:22:08.417 RECKLESS DRIVER
19-0702108 19-07746 5225 STOCKTON RD 2019-07-11 23:10:16.863 UNAUTHORIZED USE OF MOTOR VEHICLE
19-0702107 901 TOMMY LEWIS DR 2019-07-11 23:06:52.427 CHECKING PERSON
19-0702103 19-07745 1355 EXCHANGE AV 2019-07-11 22:34:55.703 FOUND PROPERTY
19-0702102 1775 OLD MORRILTON HWY 2019-07-11 22:13:42.330 NO CONTACT ORDER VIOLATION
19-0702100 102 OAK ST 2019-07-11 22:10:00.887 DISTURBANCE
19-0702099 705 CLUB LN 2019-07-11 22:03:41.803 THEFT OF SERVICES
19-0702097 1525 CLIFTON ST 2019-07-11 21:31:01.917 DOMESTIC DISTURBANCE
19-0702096 501 4TH ST 2019-07-11 21:28:32.610 CIVIL STAND BY
19-0702095 1700 MUSEUM RD 2019-07-11 21:22:19.533 CHECKING VEHICLE
19-0702094 1535 BLUE LUCERNE DR 2019-07-11 21:22:09.660 BURGLARY
19-0702091 19-07743 801 S SALEM RD 2019-07-11 21:12:44.187 ACCIDENT - PERSONAL INJURY
19-0702089 475 ROBINS ST 2019-07-11 21:05:29.913 LOUD NOISE-MUSIC
19-0702088 2120 HAIRSTON AV 2019-07-11 21:00:35.740 SUPPLEMENT REPORT CALL
19-0702085 19-07744 1565 GARDENIA 2019-07-11 20:45:50.497 CIVIL MATTER
19-0702084 1100 HAMILTON ST 2019-07-11 20:41:17.463 CHECKING PERSON
19-0702082 1724 ROBINSON AV 2019-07-11 20:30:25.427 SUSPICIOUS PERSON
19-0702078 1601 TYLER ST 2019-07-11 19:56:37.647 DISCHARGING FIREWORKS
19-0702077 1615 SCOTT ST 2019-07-11 19:52:02.303 ATTEMPT TO CONTACT
19-0702076 2890 DAVE WARD DR 2019-07-11 19:48:09.177 TRESPASSING
19-0702069 540 FACTORY ST 2019-07-11 18:49:08.173 DISTURBANCE
19-0702068 401 2ND ST 2019-07-11 18:33:11.043 CRIMINAL MISCHIEF
19-0702067 1523 MILL ST 2019-07-11 18:23:29.550 ATTEMPT TO CONTACT
19-0702065 1910 HILLMAN ST 2019-07-11 18:19:01.760 SUSPICIOUS VEHICLE
19-0702064 19-07740 2150 E OAK ST 2019-07-11 18:18:56.797 ACCIDENT - PROPERTY DAMAGE
19-0702062 19-07738 1010 MAIN ST 2019-07-11 18:03:42.070 NO CONTACT ORDER VIOLATION
19-0702060 820 E OAK ST 2019-07-11 17:30:20.733 SUPPLEMENT REPORT CALL
19-0702059 19-07739 1105 SKYLINE DR 2019-07-11 17:28:50.020 DISTURBANCE
19-0702057 19-07737 3099 SALEM RD 2019-07-11 17:19:30.693 ACCIDENT - PROPERTY DAMAGE
19-0702056 1806 CLARA DR 2019-07-11 17:17:17.843 ATTEMPT TO CONTACT
19-0702052 1205 DAVE WARD DR 2019-07-11 16:50:03.717 SUSPICIOUS ACTIVITY
19-0702048 19-07735 820 E OAK ST 2019-07-11 16:11:24.450 ACCIDENT - PROPERTY DAMAGE
19-0702047 375 E OAK ST 2019-07-11 16:04:42.153 SUSPICIOUS VEHICLE
19-0702046 19-07733 2014 TYLER ST 2019-07-11 16:04:06.930 ACCIDENT - PROPERTY DAMAGE
19-0702045 19-07736 855 SALEM RD 2019-07-11 15:58:15.647 ACCIDENT - PRIVATE PROPERTY
19-0702043 2840 DAVE WARD DR 2019-07-11 15:38:09.320 SUPPLEMENT REPORT CALL
19-0702041 3900 DAVE WARD DR 2019-07-11 15:33:39.143 TRAFFIC PROBLEM-CONTROL
19-0702040 19-07732 1000 S AMITY RD 2019-07-11 15:29:17.483 SUPPLEMENT REPORT CALL
19-0702035 302 ANGUS ST 2019-07-11 15:16:30.160 SERVING SUBPOENA
19-0702034 1555 EXCHANGE AV 2019-07-11 15:02:45.650 ATTEMPT TO CONTACT
19-0702033 540 UNITED DR 2019-07-11 14:57:17.093 ALARM - BANK
19-0702031 618 OAK ST 2019-07-11 14:51:18.183 SUPPLEMENT REPORT CALL
19-0702030 475 ROBINS ST 2019-07-11 14:46:33.637 ATTEMPT TO CONTACT
19-0702029 2323 WASHINGTON AV 2019-07-11 14:45:12.237 DISCHARGING FIREWORKS
19-0702028 5120 BURNT PINE DR 2019-07-11 14:39:40.797 SERVING SUBPOENA
19-0702027 2107 HAIRSTON AV 2019-07-11 14:39:22.280 ATTEMPT TO CONTACT
19-0702025 19-07731 867 FENDLEY DR 2019-07-11 14:18:12.197 BREAKING OR ENTERING
19-0702023 19-07730 2435 TYLER ST 2019-07-11 14:10:23.447 HARASSMENT
19-0702021 829 ASH ST 2019-07-11 13:50:59.850 ATTEMPT TO CONTACT
19-0702019 19-07729 2890 DAVE WARD DR 2019-07-11 13:46:41.667 FORGERY
19-0702015 380 HARKRIDER ST 2019-07-11 13:36:23.280 SUPPLEMENT REPORT CALL
19-0702014 19-07728 2125 HARKRIDER ST 2019-07-11 13:36:12.703 CHECKING VEHICLE
19-0702008 2080 BROADVIEW AV 2019-07-11 13:09:23.537 SUPPLEMENT REPORT CALL
19-0702007 19-07726 2415 SAPPHIRE DR 2019-07-11 13:06:36.273 ROAD RAGE
19-0702006 2205 ROSEMARY DR 2019-07-11 12:43:36.240 SERVING SUBPOENA
19-0702004 1601 HOGAN LN 2019-07-11 12:34:16.900 CIVIL STAND BY
19-0702002 275 HELEN ST 2019-07-11 12:31:34.003 CHECK ON THE WELFARE
19-0702001 1001 MCNUTT RD 2019-07-11 12:21:51.573 HARASSING COMMUNICATIONS
19-0702000 19-07725 2840 DAVE WARD DR 2019-07-11 12:21:08.550 BREAKING OR ENTERING
19-0701998 2800 GULFSHORE DR 2019-07-11 12:06:02.513 ATTEMPT TO CONTACT
19-0701996 19-07723 2475 SANDERS ST 2019-07-11 12:01:41.647 ACCIDENT - PRIVATE PROPERTY
19-0701995 800 MUSEUM RD 2019-07-11 11:43:02.667 SUPPLEMENT REPORT CALL
19-0701994 955 SOUTH GERMAN LN 2019-07-11 11:38:40.663 DOMESTIC DISTURBANCE
19-0701989 19-07722 1750 VILLAGE COMMONS DR 2019-07-11 11:07:07.717 ACCIDENT - PRIVATE PROPERTY
19-0701988 1701 HAIRSTON AV 2019-07-11 11:04:54.757 TRESPASSING
19-0701987 1191 STURGIS RD 2019-07-11 11:02:28.503 REPOSSESSION
19-0701986 475 ROBINS ST 2019-07-11 11:00:04.033 ATTEMPT TO CONTACT
19-0701985 777 S EAST GERMAN LN 2019-07-11 10:58:42.147 SUPPLEMENT REPORT CALL
19-0701984 19-07721 911 S HARKRIDER DR 2019-07-11 10:58:32.600 ACCIDENT - HIT AND RUN
19-0701982 1485 OLD MORRILTON HWY 2019-07-11 10:48:09.673 SUSPICIOUS ACTIVITY
19-0701980 19-07720 603 HARKRIDER ST 2019-07-11 10:42:40.493 ACCIDENT - PROPERTY DAMAGE
19-0701979 19-07719 1725 MONACO DR 2019-07-11 10:42:05.800 THEFT OF IDENTITY
19-0701977 1485 OLD MORRILTON HWY 2019-07-11 10:31:24.200 SUPPLEMENT REPORT CALL
19-0701976 475 ROBINS ST 2019-07-11 10:30:25.997 ATTEMPT TO CONTACT
19-0701975 335 DABNEY CT 2019-07-11 10:27:33.240 SUPPLEMENT REPORT CALL
19-0701974 19-07718 935 E OAK ST 2019-07-11 10:22:48.193 THEFT OF PROPERTY
19-0701971 19-07716 1161 OLD MORRILTON HWY 2019-07-11 10:19:32.180 ACCIDENT - PRIVATE PROPERTY
19-0701970 19-07717 777 S EAST GERMAN LN 2019-07-11 10:19:06.330 CHECKING PERSON
19-0701969 380 HARKRIDER ST 2019-07-11 10:16:12.373 SUPPLEMENT REPORT CALL
19-0701966 19-07715 777 S EAST GERMAN LN 2019-07-11 10:03:28.327 THEFT OF PROPERTY
19-0701965 2107 HAIRSTON AV 2019-07-11 09:59:35.840 ATTEMPT TO CONTACT
19-0701963 800 MUSEUM RD 2019-07-11 09:56:34.020 SUPPLEMENT REPORT CALL
19-0701960 2107 HAIRSTON AV 2019-07-11 09:43:34.357 ATTEMPT TO CONTACT
19-0701957 2000 KEATHLEY DR 2019-07-11 09:25:58.450 THEFT OF SERVICES
19-0701954 500 SOUTH GERMAN LN 2019-07-11 09:19:12.910 ATTEMPT TO CONTACT
19-0701952 1105 PRAIRIE ST 2019-07-11 09:16:06.490 SERVING SUBPOENA
19-0701951 1645 HIGHPOINT DR 2019-07-11 09:16:03.477 ALARM
19-0701949 19-07714 1111 MAIN ST 2019-07-11 09:05:03.297 ACCIDENT - PROPERTY DAMAGE
19-0701945 2015 RICH SMITH LN 2019-07-11 08:56:29.400 ATTEMPT TO CONTACT
19-0701944 1938 ERBACH ST 2019-07-11 08:53:50.027 ATTEMPT TO CONTACT
19-0701943 19-07713 3450 OLD MORRILTON HWY 2019-07-11 08:45:43.523 ACCIDENT - PROPERTY DAMAGE
19-0701942 2350 SANDERS ST 2019-07-11 08:44:25.833 ATTEMPT TO CONTACT
19-0701940 1835 AMOS DR 2019-07-11 08:27:28.427 FRAUD
19-0701939 28 SOUTHERLAND RD 2019-07-11 08:25:56.073 FRAUD
19-0701938 19-07712 1130 WINEBERRY RD 2019-07-11 08:23:00.323 THEFT OF PROPERTY
19-0701935 19-07711 1313 MCNUTT RD 2019-07-11 07:52:33.550 DOMESTIC DISTURBANCE
19-0701933 2107 HAIRSTON AV 2019-07-11 07:33:17.943 SUPPLEMENT REPORT CALL
19-0701930 3300 PEBBLE BEACH DR 2019-07-11 07:19:28.550 ALARM
19-0701929 815 NORTH CREEK DR 2019-07-11 07:16:17.197 ALARM
19-0701927 1700 DONAGHEY AV 2019-07-11 06:42:47.560 TRAFFIC LIGHT PROBLEM
19-0701926 1701 HAIRSTON AV 2019-07-11 06:27:27.170 CHECK ON THE WELFARE
19-0701925 815 NORTH CREEK DR 2019-07-11 06:25:45.443 ALARM
19-0701924 260 SALEM RD 2019-07-11 05:51:22.470 ABANDONED VEHICLE
19-0701923 2302 COLLEGE AV 2019-07-11 05:21:35.713 DISTURBANCE
19-0701921 1430 SOUTHERN HILLS DR 2019-07-11 04:46:52.630 DOMESTIC DISTURBANCE
19-0701920 19-07709 1095 SKYLINE DR 2019-07-11 04:37:38.267 THEFT OF SERVICES
19-0701918 2000 KEATHLEY DR 2019-07-11 04:23:46.580 SUPPLEMENT REPORT CALL
19-0701916 19-07708 2000 KEATHLEY DR 2019-07-11 03:57:16.803 THEFT OF PROPERTY
19-0701914 818 E OAK ST 2019-07-11 03:10:28.553 BURGLARY
19-0701913 19-07707 300 S MITCHELL ST 2019-07-11 02:50:28.920 CHECKING PERSON
19-0701912 2200 MEADOWLAKE RD 2019-07-11 02:44:09.840 LOUD NOISE-MUSIC
19-0701911 19-07706 1 TUCKER CREEK RD 2019-07-11 02:12:38.873 CHECKING PERSON
19-0701909 19-07705 605 1ST AV 2019-07-11 01:36:41.287 AGENCY ASSIST
19-0701907 719 1ST ST 2019-07-11 00:45:04.883 SUSPICIOUS ACTIVITY
19-0701906 720 S HARKRIDER DR 2019-07-11 00:42:06.967 ALARM
19-0701905 1410 CHAMPIONS DR 2019-07-11 00:30:18.923 RUNAWAY
19-0701904 2901 TYLER ST 2019-07-11 00:27:47.337 RECKLESS DRIVER
19-0701903 3202 PRINCE ST 2019-07-11 00:27:20.817 CITIZEN ASSIST
19-0701901 500 SOUTH GERMAN LN 2019-07-11 00:13:17.787 MISDEMEANOR WARRANT SERVICE
19-0701900 19-07704 305 GRANDVIEW HEIGHTS DR 2019-07-11 00:12:14.640 BURGLARY
19-0701898 1155 SKYLINE DR 2019-07-10 23:33:59.583 CHECK ON THE WELFARE
19-0701897 813 OAK ST 2019-07-10 23:30:35.423 ALARM
19-0701896 380 HARKRIDER ST 2019-07-10 23:24:13.923 ALARM
19-0701895 475 ROBINS ST 2019-07-10 23:22:41.557 CITIZEN ASSIST
19-0701894 550 SKYLINE DR 2019-07-10 23:00:50.790 CHECK ON THE WELFARE
19-0701891 19-07702 810 MUSEUM RD 2019-07-10 22:34:31.373 CHECK ON THE WELFARE
19-0701890 205 E OAK ST 2019-07-10 22:24:40.893 CHECK ON THE WELFARE
19-0701886 375 MONROE ST 2019-07-10 22:06:39.447 RUNAWAY
19-0701885 19-07700 475 ROBINS ST 2019-07-10 22:04:19.280 DOMESTIC DISTURBANCE
19-0701884 1828 HOGAN LN 2019-07-10 21:54:53.997 DOMESTIC DISTURBANCE
19-0701882 1105 SKYLINE DR 2019-07-10 21:50:31.150 TRESPASSING
19-0701881 19-07699 2080 BROADVIEW AV 2019-07-10 21:43:39.727 FIGHT
19-0701880 2235 DESTIN DR 2019-07-10 21:41:05.927 ATTEMPT TO CONTACT
19-0701879 1236 TURNBERRY DR 2019-07-10 21:38:40.923 SUSPICIOUS VEHICLE
19-0701878 101 OAK ST 2019-07-10 21:38:31.127 CHECK ON THE WELFARE
19-0701877 575 5TH AV 2019-07-10 21:27:31.150 CHECK ON THE WELFARE
19-0701876 1415 DONAGHEY AV 2019-07-10 21:27:26.360 DISCHARGING FIREWORKS
19-0701875 500 SOUTH GERMAN LN 2019-07-10 21:25:05.583 FELONY WARRANT SERVICE
19-0701874 1805 SOUTH BLVD 2019-07-10 21:23:37.460 SUSPICIOUS ACTIVITY
19-0701873 1002 E OAK ST 2019-07-10 21:12:31.647 CHECK ON THE WELFARE
19-0701872 1120 HOGAN LN 2019-07-10 21:12:06.000 SUSPICIOUS VEHICLE
19-0701871 475 ROBINS ST 2019-07-10 21:09:53.493 AGENCY ASSIST
19-0701867 10 BENTLEY DR 2019-07-10 20:24:52.070 SUSPICIOUS PERSON
19-0701866 380 HARKRIDER ST 2019-07-10 20:24:35.330 TRESPASSING
19-0701865 1701 HAIRSTON AV 2019-07-10 20:14:01.127 LOUD NOISE-MUSIC
19-0701864 19-07697 510 SOUTH GERMAN LN 2019-07-10 20:03:43.533 HARASSMENT
19-0701863 2980 OLD MORRILTON HWY 2019-07-10 19:54:30.603 DOMESTIC DISTURBANCE
19-0701862 20 WHITE OAK DR 2019-07-10 19:52:32.930 SUSPICIOUS PERSON
19-0701861 19-07698 700 3RD AV 2019-07-10 19:41:38.053 ATTEMPT TO CONTACT
19-0701860 411 4TH ST 2019-07-10 19:36:16.770 TRESPASSING
19-0701859 501 ELSINGER BLVD 2019-07-10 19:26:53.140 RECKLESS DRIVER
19-0701858 1700 WYSTERIA LN 2019-07-10 19:02:43.297 ALARM
19-0701857 2205 RAINTREE DR 2019-07-10 18:47:32.173 THEFT OF PROPERTY
19-0701856 499 DENISON ST 2019-07-10 18:45:18.933 TRAFFIC PROBLEM-CONTROL
19-0701855 26 ED SPEAKER RD 2019-07-10 18:44:30.900 ALARM
19-0701854 1702 HARKRIDER ST 2019-07-10 18:28:20.963 ROAD RAGE
19-0701853 705 4TH ST 2019-07-10 18:27:42.150 AGENCY ASSIST
19-0701852 19-07696 2107 HAIRSTON AV 2019-07-10 18:19:35.740 SHOTS FIRED
19-0701851 19-07694 150 SKYLINE DR 2019-07-10 18:13:12.820 ACCIDENT - PERSONAL INJURY
19-0701850 1162 WOODSIDE DR 2019-07-10 18:10:13.340 DOMESTIC DISTURBANCE
19-0701849 19-07693 126 OAK ST 2019-07-10 18:07:24.847 HARASSMENT
19-0701848 19-07692 1000 EAST GERMAN LN 2019-07-10 17:51:36.370 ACCIDENT - PROPERTY DAMAGE
19-0701847 19-07695 700 S HOGAN LN 2019-07-10 17:49:09.347 FRAUD
19-0701846 19-07691 1120 EAST GERMAN LN 2019-07-10 17:46:37.630 ACCIDENT - PROPERTY DAMAGE
19-0701845 19-07690 402 HEREFORD ST 2019-07-10 17:44:07.137 DISTURBANCE
19-0701844 400 WILLOW ST 2019-07-10 17:31:03.553 SUPPLEMENT REPORT CALL
19-0701843 19-07689 7 PIN OAK DR 2019-07-10 17:28:14.980 BURGLARY
19-0701842 19-07688 1200 GUM ST 2019-07-10 17:25:17.950 STALLED VEHICLE
19-0701841 2100 SALEM RD 2019-07-10 17:24:41.680 TRAFFIC PROBLEM-CONTROL
19-0701840 2810 BRUCE ST 2019-07-10 17:20:40.093 SUPPLEMENT REPORT CALL
19-0701839 19-07686 900 EXCHANGE AV 2019-07-10 17:06:56.067 ACCIDENT - PROPERTY DAMAGE
19-0701838 19-07685 327 ANGUS ST 2019-07-10 17:02:42.767 SUSPICIOUS ACTIVITY
19-0701837 19-07687 335 DABNEY CT 2019-07-10 16:59:48.890 FRAUD
19-0701836 625 TOMMY LEWIS DR 2019-07-10 16:45:50.227 RECKLESS DRIVER
19-0701831 900 SOUTH GERMAN LN 2019-07-10 16:16:44.140 RECKLESS DRIVER
19-0701830 1002 CLIFTON ST 2019-07-10 16:12:46.707 CHECKING PERSON
19-0701825 3345 PEBBLE BEACH DR 2019-07-10 15:41:55.613 DOMESTIC DISTURBANCE
19-0701824 19-07684 2640 PRINCE ST 2019-07-10 15:39:50.767 ACCIDENT - PROPERTY DAMAGE
19-0701821 1940 RICH SMITH LN 2019-07-10 15:27:49.137 CRIMINAL MISCHIEF
19-0701819 700 3RD AV 2019-07-10 15:20:58.480 DOMESTIC DISTURBANCE
19-0701817 2900 DAVE WARD DR 2019-07-10 15:09:29.097 SUPPLEMENT REPORT CALL
19-0701816 30 LOWER RIDGE RD 2019-07-10 14:57:23.863 STALLED VEHICLE
19-0701814 19-07681 2810 BRUCE ST 2019-07-10 14:54:53.977 HARASSING COMMUNICATIONS
19-0701812 19-07680 707 ROBINS ST 2019-07-10 14:45:08.927 FORGERY
19-0701810 65 GRIFFITH ST 2019-07-10 14:39:21.543 AGENCY ASSIST
19-0701807 19-07679 400 WILLOW ST 2019-07-10 14:33:08.980 THEFT OF PROPERTY
19-0701806 2205 ROSEMARY DR 2019-07-10 14:17:19.530 SERVING SUBPOENA
19-0701799 1525 CLIFTON ST 2019-07-10 13:53:35.397 VEHICLE TOW
19-0701798 19-07678 1200 E DAVE WARD DR 2019-07-10 13:48:25.843 ACCIDENT - PROPERTY DAMAGE
19-0701797 19-07677 500 ELSINGER BLVD 2019-07-10 13:31:26.140 SHOPLIFTING
19-0701794 3900 DAVE WARD DR 2019-07-10 13:17:47.947 INDECENT EXPOSURE
19-0701793 19-07676 380 HARKRIDER ST 2019-07-10 13:13:26.473 THEFT OF PROPERTY
19-0701791 2019-07-10 12:41:23.560 RECOVERED PROPERTY
19-0701790 850 DUWAYNE LN 2019-07-10 12:17:31.720 SUPPLEMENT REPORT CALL
19-0701789 472 INGRAM ST 2019-07-10 12:12:45.270 ATTEMPT TO CONTACT
19-0701787 19-07675 215 MILL ST 2019-07-10 12:03:07.897 CRIMINAL MISCHIEF
19-0701783 19-07674 700 ELSINGER BLVD 2019-07-10 11:49:38.517 ACCIDENT - PRIVATE PROPERTY
19-0701781 2019-07-10 11:46:29.147 CHECK ON THE WELFARE
19-0701779 201 SKYLINE DR 2019-07-10 11:31:18.927 UNKNOWN TROUBLE
19-0701777 19-07672 855 SALEM RD 2019-07-10 11:24:37.443 ACCIDENT - PRIVATE PROPERTY
19-0701772 2900 PRINCE ST 2019-07-10 11:09:06.523 STALLED VEHICLE
19-0701771 19-07670 1900 HOGAN LN 2019-07-10 11:07:53.793 FRAUD
19-0701769 19-07671 1105 SKYLINE DR 2019-07-10 11:02:02.043 THEFT OF PROPERTY
19-0701768 19-07668 810 PARKWAY ST 2019-07-10 10:46:25.850 ACCIDENT - PRIVATE PROPERTY
19-0701767 4850 ABBEY GAIL DR 2019-07-10 10:40:55.113 SUPPLEMENT REPORT CALL
19-0701765 475 ROBINS ST 2019-07-10 10:18:02.583 911 HANGUP CALL
19-0701761 1267 HARTON ST 2019-07-10 10:02:40.340 DISTURBANCE
19-0701758 1525 CLIFTON ST 2019-07-10 09:51:06.210 DOMESTIC DISTURBANCE
19-0701757 2025 OLD MORRILTON HWY 2019-07-10 09:47:27.110 ATTEMPT TO CONTACT
19-0701756 2590 ZOYSIA 2019-07-10 09:29:59.343 ALARM - HOLD UP or PANIC
19-0701753 19-07666 4850 ABBEY GAIL DR 2019-07-10 09:17:15.843 BREAKING OR ENTERING
19-0701752 19-07667 1306 S DONAGHEY AV 2019-07-10 09:12:58.830 NO CONTACT ORDER VIOLATION
19-0701746 19-07665 850 DUWAYNE LN 2019-07-10 08:56:58.443 RUNAWAY
19-0701743 472 INGRAM ST 2019-07-10 08:38:38.490 CIVIL STAND BY
19-0701739 201 SKYLINE DR 2019-07-10 08:16:27.173 ALARM
19-0701738 19-07662 1620 MIDDLE RD 2019-07-10 08:08:43.850 BATTERY REPORT
19-0701734 1845 OLD MORRILTON HWY 2019-07-10 07:29:50.980 CHECKING VEHICLE
19-0701733 19-07661 345 HONEY HILL DR 2019-07-10 07:24:41.130 BREAKING OR ENTERING
19-0701732 19-07663 1706 INDEPENDENCE ST 2019-07-10 07:19:15.993 FRAUD
19-0701730 19-07660 365 CHAUCER LN 2019-07-10 06:12:43.010 BREAKING OR ENTERING
19-0701729 835 S DONAGHEY AV 2019-07-10 03:39:17.623 CHECK ON THE WELFARE
19-0701727 19-07659 1999 DAVIS ST 2019-07-10 03:18:18.040 CHECKING VEHICLE
19-0701725 472 INGRAM ST 2019-07-10 03:08:41.943 TRESPASSING
19-0701724 475 ROBINS ST 2019-07-10 02:57:52.403 CHECKING BUILDING
19-0701721 2310 ROBINSON AV 2019-07-10 00:58:23.360 CHECKING PERSON
19-0701718 475 ROBINS ST 2019-07-10 00:30:10.627 CHECKING PERSON
19-0701714 1360 TORREYSON ST 2019-07-09 23:41:51.253 CHECKING PERSON
19-0701711 302 S ASH ST 2019-07-09 23:04:06.820 CHECKING PERSON
19-0701703 1 CADRON SETTLEMENT PARK RD 2019-07-09 22:08:37.040 CHECKING VEHICLE
19-0701699 1360 TORREYSON ST 2019-07-09 21:52:59.850 CHECKING PERSON
19-0701698 1601 HOGAN LN 2019-07-09 21:46:42.390 SUSPICIOUS PERSON
19-0701695 3010 BILLY JACK DR 2019-07-09 21:35:00.977 REPOSSESSION
19-0701694 260 SALEM RD 2019-07-09 21:31:32.857 SUSPICIOUS PERSON
19-0701693 3900 DAVE WARD DR 2019-07-09 21:04:07.640 INDECENT EXPOSURE
19-0701692 404 WATKINS ST 2019-07-09 21:01:43.807 SUSPICIOUS VEHICLE
19-0701691 19-07656 472 INGRAM ST 2019-07-09 21:00:08.660 DOMESTIC DISTURBANCE
19-0701690 1595 SOUTH GERMAN LN 2019-07-09 20:59:16.510 CHECK ON THE WELFARE
19-0701689 1900 KEATHLEY DR 2019-07-09 20:56:42.070 CHECKING VEHICLE
19-0701687 1 MIDDLE RD 2019-07-09 20:40:44.287 VEHICLE TOW
19-0701686 675 AMITY RD 2019-07-09 20:37:23.463 STALLED VEHICLE
19-0701685 335 S MITCHELL ST 2019-07-09 20:31:43.447 ATTEMPT TO CONTACT
19-0701683 19-07655 201 SKYLINE DR 2019-07-09 20:26:33.003 ACCIDENT - PRIVATE PROPERTY
19-0701682 2125 ROSEMARY DR 2019-07-09 20:08:59.683 AGENCY ASSIST
19-0701672 2160 HARKRIDER ST 2019-07-09 19:08:07.420 ATTEMPT TO CONTACT
19-0701671 515 HARKRIDER ST 2019-07-09 19:06:18.063 DISTURBANCE
19-0701670 19-07649 1555 EXCHANGE AV 2019-07-09 19:00:27.717 DISTURBANCE
19-0701666 1306 S DONAGHEY AV 2019-07-09 18:30:50.820 NO CONTACT ORDER VIOLATION
19-0701665 19-07648 2450 WHITEHALL DR 2019-07-09 18:27:58.623 SUSPICIOUS ACTIVITY
19-0701664 19-07647 1100 WINFIELD ST 2019-07-09 18:21:06.157 ACCIDENT - PROPERTY DAMAGE
19-0701663 1902 HOGAN LN 2019-07-09 18:16:52.563 FRAUD
19-0701662 1895 E OAK ST 2019-07-09 18:11:48.220 DISTURBANCE
19-0701660 2505 E OAK ST 2019-07-09 18:08:21.143 RECKLESS DRIVER
19-0701657 19-07645 475 ROBINS ST 2019-07-09 17:57:13.990 FIRE DEPT ASSIST
19-0701651 19-07644 3125 PEBBLE BEACH DR 2019-07-09 17:36:48.820 CIVIL STAND BY
19-0701649 19-07641 1502 DAVIS ST 2019-07-09 17:18:14.367 BURGLARY
19-0701648 19-07639 999 E 6TH ST 2019-07-09 17:17:37.207 ACCIDENT - PROPERTY DAMAGE
19-0701647 867 FENDLEY DR 2019-07-09 17:15:27.740 ATTEMPT TO CONTACT
19-0701645 2765 BLANEY HILL RD 2019-07-09 17:14:49.800 ALARM
19-0701643 19-07640 1250 S AMITY RD 2019-07-09 17:08:57.677 ACCIDENT - PROPERTY DAMAGE
19-0701641 19-07638 2106 HAIRSTON AV 2019-07-09 17:01:07.863 THEFT OF PROPERTY
19-0701639 100 FARRIS RD 2019-07-09 16:50:16.497 STALLED VEHICLE
19-0701637 19-07634 804 HOGAN LN 2019-07-09 16:40:39.107 ACCIDENT - PROPERTY DAMAGE
19-0701636 19-07636 1775 OLD MORRILTON HWY 2019-07-09 16:38:58.110 ACCIDENT - PROPERTY DAMAGE
19-0701635 19-07637 101 OAK ST 2019-07-09 16:36:56.757 FOUND PROPERTY
19-0701634 4101 PRINCE ST 2019-07-09 16:31:16.440 CHECKING PERSON
19-0701632 2270 MEADOWLAKE RD 2019-07-09 16:24:50.307 CHECK ON THE WELFARE
19-0701631 375 MONROE ST 2019-07-09 16:14:13.713 CIVIL MATTER
19-0701630 19-07632 1001 MCNUTT RD 2019-07-09 16:12:07.307 CRIMINAL MISCHIEF
19-0701628 1900 TYLER ST 2019-07-09 16:11:07.810 SUPPLEMENT REPORT CALL
19-0701626 19-07633 1890 E OAK ST 2019-07-09 16:08:53.740 ATTEMPT TO CONTACT
19-0701622 2235 DESHA DR 2019-07-09 15:37:23.633 ALARM
19-0701621 1238 FRONT ST 2019-07-09 15:35:48.580 SUPPLEMENT REPORT CALL
19-0701617 3900 DAVE WARD DR 2019-07-09 15:07:10.200 SUPPLEMENT REPORT CALL
19-0701615 2510 PRINCE ST 2019-07-09 15:05:16.270 CHECKING PERSON
19-0701614 3700 JEANNA DR 2019-07-09 15:04:48.393 THEFT OF PROPERTY
19-0701612 19-07631 1425 E OAK ST 2019-07-09 15:04:41.420 FOUND PROPERTY
19-0701608 1900 S AMITY RD 2019-07-09 14:53:32.287 THEFT OF PROPERTY
19-0701607 700 ELSINGER BLVD 2019-07-09 14:41:03.457 ATTEMPT TO CONTACT
19-0701606 19-07629 800 MUSEUM RD 2019-07-09 14:33:53.697 ACCIDENT - PRIVATE PROPERTY
19-0701605 1410 ROBINS ST 2019-07-09 14:32:18.877 911 HANGUP CALL
19-0701603 1830 HOGAN LN 2019-07-09 14:29:34.793 ATTEMPT TO CONTACT
19-0701601 1 ROSEWOOD DR 2019-07-09 14:20:52.883 ATTEMPT TO CONTACT
19-0701597 19-07628 375 E OAK ST 2019-07-09 14:04:17.253 HARASSING COMMUNICATIONS
19-0701596 1109 WIGGLE WORM RD 2019-07-09 13:58:20.043 CIVIL MATTER
19-0701594 30 SMOKING OAK RD 2019-07-09 13:45:18.510 ALARM
19-0701589 3240 ROBERT OTT CIR 2019-07-09 13:11:50.010 FRAUD
19-0701588 1525 CLIFTON ST 2019-07-09 13:08:48.707 INTERFERENCE WITH CUSTODY
19-0701587 19-07626 1404 HARTJE LN 2019-07-09 12:52:09.457 FRAUD
19-0701586 319 WILLOW ST 2019-07-09 12:44:46.540 CIVIL MATTER
19-0701584 112 SHAMROCK DR 2019-07-09 12:36:52.203 CRIMINAL MISCHIEF
19-0701581 600 CLUB LN 2019-07-09 12:23:01.140 911 HANGUP CALL
19-0701577 603 5TH AV 2019-07-09 12:06:46.007 ATTEMPT TO CONTACT
19-0701576 19-07625 855 SALEM RD 2019-07-09 12:04:02.737 ACCIDENT - PRIVATE PROPERTY
19-0701573 19-07652 1115 PARKWAY ST 2019-07-09 11:54:47.123 ATTEMPT TO CONTACT
19-0701571 19-07624 960 MATTISON RD 2019-07-09 11:45:51.213 TERRORISTIC THREATENING
19-0701570 1680 S SALEM RD 2019-07-09 11:41:47.477 SUSPICIOUS PERSON
19-0701569 3235 LILLIAN CV 2019-07-09 11:39:50.010 ATTEMPT TO CONTACT
19-0701568 705 MUSEUM RD 2019-07-09 11:26:29.037 SUPPLEMENT REPORT CALL
19-0701567 1839 TYLER ST 2019-07-09 11:19:02.970 CRIMINAL MISCHIEF
19-0701564 1505 AMELIA DR 2019-07-09 10:50:26.787 ALARM
19-0701563 1839 TYLER ST 2019-07-09 10:49:56.630 ATTEMPT TO CONTACT
19-0701562 3325 PEBBLE BEACH DR 2019-07-09 10:49:00.220 UNAUTHORIZED USE OF MOTOR VEHICLE
19-0701561 720 EAST GERMAN LN 2019-07-09 10:48:15.073 VEHICLE TOW
19-0701560 1105 PRAIRIE ST 2019-07-09 10:47:23.687 ATTEMPT TO CONTACT
19-0701558 375 YALE DR 2019-07-09 10:44:29.527 STALKING
19-0701557 19-07620 1000 S AMITY RD 2019-07-09 10:44:12.803 ACCIDENT - PERSONAL INJURY
19-0701555 626 4TH AV 2019-07-09 10:34:04.730 LOUD NOISE-MUSIC
19-0701554 414 DURHAM ST 2019-07-09 10:33:10.520 ATTEMPT TO CONTACT
19-0701553 1620 MIDDLE RD 2019-07-09 10:30:11.973 THEFT OF PROPERTY
19-0701551 1435 E OAK ST 2019-07-09 10:26:40.937 911 HANGUP CALL
19-0701550 1839 TYLER ST 2019-07-09 10:24:54.780 HARASSMENT
19-0701549 19-07622 2415 WASHINGTON AV 2019-07-09 10:20:03.663 ATTEMPT TO CONTACT
19-0701548 818 4TH ST 2019-07-09 10:19:01.513 SUPPLEMENT REPORT CALL
19-0701547 409 INGRAM ST 2019-07-09 10:12:52.510 ATTEMPT TO CONTACT
19-0701543 470 MONROE ST 2019-07-09 09:52:57.667 REPOSSESSION
19-0701541 99 KINLEY DR 2019-07-09 09:38:18.070 ROAD RAGE
19-0701540 3355 MILLER'S VIEW 2019-07-09 09:37:43.733 CHECK ON THE WELFARE
19-0701539 19-07618 475 ROBINS ST 2019-07-09 09:32:41.483 BURGLARY
19-0701538 19-07619 705 MUSEUM RD 2019-07-09 09:18:35.740 PROPERTY DAMAGE
19-0701537 19-07617 818 4TH ST 2019-07-09 09:15:29.443 BURGLARY
19-0701535 19-07616 1485 OLD MORRILTON HWY 2019-07-09 09:06:16.527 BATTERY REPORT
19-0701533 1305 DAVE WARD DR 2019-07-09 08:56:49.293 CHECKING VEHICLE
19-0701532 2005 KEATHLEY DR 2019-07-09 08:55:45.050 ATTEMPT TO CONTACT
19-0701530 3205 PEBBLE BEACH DR 2019-07-09 08:51:24.437 ATTEMPT TO CONTACT
19-0701529 19-07615 1360 ROBINS ST 2019-07-09 08:29:35.883 THEFT OF PROPERTY
19-0701528 2200 STOUT ST 2019-07-09 08:28:25.153 911 HANGUP CALL
19-0701527 2100 DAVE WARD DR 2019-07-09 08:26:55.547 TRAFFIC PROBLEM-CONTROL
19-0701524 2929 JOANNA DR 2019-07-09 08:18:33.597 ATTEMPT TO CONTACT
19-0701522 1839 TYLER ST 2019-07-09 08:01:07.500 CRIMINAL MISCHIEF
19-0701521 300 S DONAGHEY AV 2019-07-09 07:59:43.603 ATTEMPT TO CONTACT
19-0701518 100 BROOKSIDE DR 2019-07-09 07:35:19.923 ATTEMPT TO CONTACT
19-0701517 537 2ND AV 2019-07-09 07:22:08.953 ATTEMPT TO CONTACT
19-0701516 19-07614 755 CHERUB DR 2019-07-09 07:15:46.110 ATTEMPT TO CONTACT
19-0701515 475 ROBINS ST 2019-07-09 07:12:49.080 ATTEMPT TO CONTACT
19-0701513 475 ROBINS ST 2019-07-09 06:49:57.100 ATTEMPT TO CONTACT
19-0701512 3600 DONNELL RIDGE RD 2019-07-09 06:32:36.197 TRAFFIC PROBLEM-CONTROL
19-0701511 4095 PRINCE ST 2019-07-09 06:14:24.503 CHECK ON THE WELFARE
19-0701510 19-07612 1985 RICH SMITH LN 2019-07-09 05:57:32.960 BREAKING OR ENTERING
19-0701508 504 INGRAM ST 2019-07-09 04:32:01.920 TRESPASSING
19-0701507 19-07611 1102 CLIFTON ST 2019-07-09 04:23:15.837 RECKLESS DRIVER
19-0701506 475 ROBINS ST 2019-07-09 03:39:44.270 ATTEMPT TO CONTACT
19-0701505 550 INGRAM ST 2019-07-09 03:28:59.440 INDECENT EXPOSURE
19-0701504 601 DAVE WARD DR 2019-07-09 03:27:18.430 CHECK ON THE WELFARE
19-0701503 475 ROBINS ST 2019-07-09 03:17:15.673 AGENCY ASSIST
19-0701501 1105 COLLIER DR 2019-07-09 02:41:38.773 ALARM
19-0701500 19-07610 475 ROBINS ST 2019-07-09 02:14:32.213 TRESPASSING
19-0701496 815 E OAK ST 2019-07-09 01:16:57.307 CHECKING PERSON
19-0701495 3700 JEANNA DR 2019-07-09 00:58:35.003 DOMESTIC DISTURBANCE
19-0701493 825 OAK ST 2019-07-09 00:53:48.927 TRESPASSING
19-0701492 3130 PEBBLE BEACH DR 2019-07-09 00:46:11.237 CHECKING VEHICLE
19-0701488 2310 SANDERS ST 2019-07-08 23:59:02.610 ALARM
19-0701486 1155 SKYLINE DR 2019-07-08 23:49:04.783 CHECK ON THE WELFARE
19-0701485 1505 AMELIA DR 2019-07-08 23:35:32.300 ALARM - HOLD UP or PANIC
19-0701483 1360 TORREYSON ST 2019-07-08 23:10:05.690 CHECKING PERSON
19-0701482 65 GRIFFITH ST 2019-07-08 22:58:48.147 CIVIL MATTER
19-0701481 700 S MITCHELL ST 2019-07-08 22:49:00.740 CHECKING PERSON
19-0701479 19-07609 350 GRANDVIEW HEIGHTS DR 2019-07-08 22:37:45.537 TRESPASSING
19-0701478 1100 BRUCE ST 2019-07-08 22:26:40.427 SUSPICIOUS PERSON
19-0701476 500 SOUTH GERMAN LN 2019-07-08 22:23:53.597 ATTEMPT TO CONTACT
19-0701473 1612 CHERRY ST 2019-07-08 22:17:40.817 911 HANGUP CALL
19-0701470 2015 RICH SMITH LN 2019-07-08 21:56:12.063 DISCHARGING FIREWORKS
19-0701468 19-07608 2310 ANITA LN 2019-07-08 21:38:35.233 CRIMINAL MISCHIEF
19-0701467 500 SOUTH GERMAN LN 2019-07-08 21:26:38.567 NO CONTACT ORDER VIOLATION
19-0701465 1805 OTT MEMORIAL BLVD 2019-07-08 21:12:54.660 FOUND PROPERTY
19-0701463 2015 RICH SMITH LN 2019-07-08 21:09:57.820 DISCHARGING FIREWORKS
19-0701461 1700 AMELIA DR 2019-07-08 20:47:50.373 DISCHARGING FIREWORKS
19-0701460 305 S BARIDON ST 2019-07-08 20:44:00.150 DISCHARGING FIREWORKS
19-0701457 3700 DAVE WARD DR 2019-07-08 19:50:00.060 STALLED VEHICLE
19-0701455 19-07602 2125 HARKRIDER ST 2019-07-08 19:39:54.387 CHECK ON THE WELFARE
19-0701454 19-07604 2200 WASHINGTON AV 2019-07-08 19:35:31.667 FRAUD
19-0701453 19-07603 37 WALNUT DR 2019-07-08 19:32:13.997 ACCIDENT - PRIVATE PROPERTY
19-0701452 1900 E DAVE WARD DR 2019-07-08 19:25:33.467 ARMED SUBJECT
19-0701450 2030 OLD MORRILTON HWY 2019-07-08 19:21:20.103 ABANDONED VEHICLE
19-0701446 19-07599 1360 TORREYSON ST 2019-07-08 18:56:58.610 BREAKING OR ENTERING
19-0701444 3800 COLLEGE AV 2019-07-08 18:52:00.740 DISTURBANCE
19-0701443 19-07598 3900 DAVE WARD DR 2019-07-08 18:25:48.390 THEFT OF PROPERTY
19-0701441 41 SANDSTONE DR 2019-07-08 18:04:15.313 RECKLESS DRIVER
19-0701440 4000 TYLER ST 2019-07-08 18:03:01.713 CITIZEN ASSIST
19-0701438 19-07597 504 E OAK ST 2019-07-08 17:45:45.850 ACCIDENT - PROPERTY DAMAGE
19-0701437 899 ELSINGER BLVD 2019-07-08 17:33:24.987 STALLED VEHICLE
19-0701436 19-07600 2019-07-08 17:30:04.727 ATTEMPT TO CONTACT
19-0701435 1200 DAVE WARD DR 2019-07-08 17:20:05.497 STALLED VEHICLE
19-0701434 151 SKYLINE DR 2019-07-08 17:14:45.740 CHECK ON THE WELFARE
19-0701432 19-07595 622 4TH AV 2019-07-08 16:58:36.867 ACCIDENT - PROPERTY DAMAGE
19-0701431 705 HARKRIDER ST 2019-07-08 16:52:33.120 ROAD RAGE
19-0701430 35 FORREST CT 2019-07-08 16:33:14.187 CHECK ON THE WELFARE
19-0701428 3575 OLD MORRILTON HWY 2019-07-08 16:23:04.037 CHECK ON THE WELFARE
19-0701427 2799 SALEM RD 2019-07-08 16:16:44.407 RECKLESS DRIVER
19-0701425 601 MONROE ST 2019-07-08 16:12:57.927 SUPPLEMENT REPORT CALL
19-0701424 1306 S DONAGHEY AV 2019-07-08 16:08:34.877 CHECKING VEHICLE
19-0701423 2255 STURGIS RD 2019-07-08 16:00:20.727 CHECK ON THE WELFARE
19-0701422 19-07594 475 ROBINS ST 2019-07-08 15:59:56.440 DOMESTIC DISTURBANCE
19-0701421 2207 TYLER ST 2019-07-08 15:58:00.390 FRAUD
19-0701420 19-07593 100 BROOKSIDE DR 2019-07-08 15:54:21.770 THEFT OF PROPERTY
19-0701416 2415 WASHINGTON AV 2019-07-08 15:13:49.980 ATTEMPT TO CONTACT
19-0701413 100 BROOKSIDE DR 2019-07-08 15:10:06.977 THEFT OF PROPERTY
19-0701408 1000 MORNINGSIDE DR 2019-07-08 14:32:22.543 FOUND PROPERTY
19-0701405 19-07592 618 OAK ST 2019-07-08 14:16:52.840 ACCIDENT - PERSONAL INJURY
19-0701403 19-07590 475 ROBINS ST 2019-07-08 14:07:18.147 AGENCY ASSIST
19-0701402 2840 DAVE WARD DR 2019-07-08 14:03:50.027 ATTEMPT TO CONTACT
19-0701401 5099 DAVE WARD DR 2019-07-08 14:02:49.653 STALLED VEHICLE
19-0701398 19-07589 810 PARKWAY ST 2019-07-08 13:48:24.613 ACCIDENT - PROPERTY DAMAGE
19-0701397 1822 HOGAN LN 2019-07-08 13:25:59.633 CIVIL MATTER
19-0701396 450 SKYLINE DR 2019-07-08 13:20:38.180 SUPPLEMENT REPORT CALL
19-0701394 19-07587 3900 DAVE WARD DR 2019-07-08 13:08:08.093 FRAUD
19-0701393 19-07586 124 I40WB 2019-07-08 13:07:33.570 ACCIDENT - PROPERTY DAMAGE
19-0701392 19-07585 1200 E DAVE WARD DR 2019-07-08 13:06:35.150 PROPERTY DAMAGE
19-0701390 2111 MILLWOOD DR 2019-07-08 12:52:55.503 ATTEMPT TO CONTACT
19-0701388 475 ROBINS ST 2019-07-08 12:43:46.333 TRESPASSING
19-0701384 19-07588 2840 DAVE WARD DR 2019-07-08 12:33:32.110 RUNAWAY
19-0701383 475 ROBINS ST 2019-07-08 12:16:31.803 TERRORISTIC THREATENING
19-0701381 19-07584 2125 MAPLEWOOD DR 2019-07-08 12:09:58.383 BATTERY REPORT
19-0701379 2501 DAVE WARD DR 2019-07-08 12:03:12.937 RECKLESS DRIVER
19-0701373 19-07582 2840 DAVE WARD DR 2019-07-08 11:54:30.193 FRAUD
19-0701372 19-07580 600 SKYLINE DR 2019-07-08 11:37:53.050 ACCIDENT - PROPERTY DAMAGE
19-0701370 19-07583 150 E SIEBENMORGEN RD 2019-07-08 11:21:58.877 ABUSE
19-0701369 19-07579 900 FARRIS RD 2019-07-08 11:21:02.763 BATTERY REPORT
19-0701368 601 MONROE ST 2019-07-08 11:20:32.860 SUSPICIOUS VEHICLE
19-0701367 810 4TH AV 2019-07-08 11:19:07.890 CHECK ON THE WELFARE
19-0701366 2730 DAVE WARD DR 2019-07-08 11:18:55.800 CIVIL MATTER
19-0701365 420 E OAK ST 2019-07-08 11:18:17.330 RECKLESS DRIVER
19-0701363 2840 DAVE WARD DR 2019-07-08 11:16:13.723 DOMESTIC DISTURBANCE
19-0701362 19-07578 2201 WASHINGTON AV 2019-07-08 11:13:13.623 ACCIDENT - PROPERTY DAMAGE
19-0701361 2840 DAVE WARD DR 2019-07-08 11:04:29.293 AGENCY ASSIST
19-0701359 416 OAK ST 2019-07-08 10:57:35.080 911 HANGUP CALL
19-0701357 1955 KEATHLEY DR 2019-07-08 10:31:49.267 ATTEMPT TO CONTACT
19-0701356 1400 HUEBNER ST 2019-07-08 10:29:43.870 ATTEMPT TO CONTACT
19-0701355 300 S DONAGHEY AV 2019-07-08 10:26:47.013 CIVIL STAND BY
19-0701351 1610 PRINCE ST 2019-07-08 09:52:08.847 TRESPASSING
19-0701346 1250 S AMITY RD 2019-07-08 09:21:55.710 FRAUD
19-0701344 2925 PRINCE ST 2019-07-08 09:16:05.703 SUPPLEMENT REPORT CALL
19-0701341 910 WILLOW ST 2019-07-08 08:48:24.310 ATTEMPT TO CONTACT
19-0701340 19-07577 1175 MORNINGSIDE DR 2019-07-08 08:47:26.667 ACCIDENT - PRIVATE PROPERTY
19-0701338 19-07576 1400 E W MARTIN DR 2019-07-08 08:09:01.957 K9 SEARCH-REPORT
19-0701337 19-07575 1400 E W MARTIN DR 2019-07-08 08:07:54.470 K9 SEARCH-REPORT
19-0701335 1815 OLD MORRILTON HWY 2019-07-08 08:02:44.667 ALARM
19-0701333 450 ROBINS ST 2019-07-08 07:27:45.050 HARASSING COMMUNICATIONS
19-0701331 1985 RICH SMITH LN 2019-07-08 07:19:05.737 ALARM
19-0701330 1201 EXCHANGE AV 2019-07-08 06:54:41.200 CHECKING PERSON
19-0701329 1201 EXCHANGE AV 2019-07-08 06:44:10.910 SUSPICIOUS PERSON
19-0701328 1555 EXCHANGE AV 2019-07-08 06:14:45.370 DISTURBANCE
19-0701327 19-07574 375 E OAK ST 2019-07-08 06:07:50.483 DISTURBANCE
19-0701325 625 TOMMY LEWIS DR 2019-07-08 05:14:07.393 SUSPICIOUS PERSON
19-0701320 201 SKYLINE DR 2019-07-08 01:52:22.003 PURSUIT DRILL
19-0701319 203 COUNTRY CLUB RD 2019-07-08 01:49:06.583 911 HANGUP CALL
19-0701318 1405 ROBINS ST 2019-07-08 01:15:56.353 CHECKING VEHICLE
19-0701316 201 SKYLINE DR 2019-07-08 00:30:58.753 ALARM
19-0701314 19-07573 1529 DAVIS ST 2019-07-08 00:20:42.923 DOMESTIC DISTURBANCE
19-0701310 766 HARKRIDER ST 2019-07-08 00:04:10.787 CHECKING PERSON
19-0701309 350 GRANDVIEW HEIGHTS DR 2019-07-07 23:58:54.370 TRESPASSING
19-0701308 825 OAK ST 2019-07-07 23:51:50.907 CHECKING PERSON
19-0701307 511 1ST ST 2019-07-07 23:37:23.853 ATTEMPT TO CONTACT
19-0701306 3100 IRBY DR 2019-07-07 23:37:19.033 DOMESTIC DISTURBANCE
19-0701304 1118 GUM ST 2019-07-07 23:18:36.310 CHECKING PERSON
19-0701303 19-07572 500 SOUTH GERMAN LN 2019-07-07 23:08:11.510 MISDEMEANOR WARRANT SERVICE
19-0701302 1641 E SIEBENMORGEN RD 2019-07-07 22:55:27.930 STALLED VEHICLE
19-0701301 1305 MARISSA ST 2019-07-07 22:48:21.020 LOUD NOISE-MUSIC
19-0701300 1612 HARDY ST 2019-07-07 22:44:17.390 TRESPASSING
19-0701299 1115 WINEBERRY RD 2019-07-07 22:40:07.370 SUSPICIOUS ACTIVITY
19-0701297 2905 PEBBLE BEACH DR 2019-07-07 22:03:56.660 DOMESTIC DISTURBANCE
19-0701296 460 GRANDVIEW HEIGHTS DR 2019-07-07 21:40:56.740 TRESPASSING
19-0701295 801 HOGAN LN 2019-07-07 21:22:51.380 SUPPLEMENT REPORT CALL
19-0701294 715 FAIRVIEW ST 2019-07-07 21:20:22.023 DISCHARGING FIREWORKS
19-0701293 19-07571 1155 SKYLINE DR 2019-07-07 21:16:19.393 ATTEMPT TO CONTACT
19-0701292 475 ROBINS ST 2019-07-07 21:11:16.050 LOST CHILD-FOUND CHILD
19-0701290 1620 MIDDLE RD 2019-07-07 20:33:35.800 THEFT OF VEHICLE
19-0701289 19-07570 475 ROBINS ST 2019-07-07 20:16:46.847 FIRE DEPT ASSIST
19-0701288 5310 PLANTATION CV 2019-07-07 20:04:41.830 ATTEMPT TO CONTACT
19-0701287 475 ROBINS ST 2019-07-07 19:50:58.850 ATTEMPT TO CONTACT
19-0701286 19-07568 911 S HARKRIDER DR 2019-07-07 19:49:26.653 ACCIDENT - PROPERTY DAMAGE
19-0701285 1485 OLD MORRILTON HWY 2019-07-07 19:36:44.493 CIVIL STAND BY
19-0701284 254 OAK ST 2019-07-07 19:31:49.793 DISTURBANCE
19-0701283 475 ROBINS ST 2019-07-07 19:22:14.943 ATTEMPT TO CONTACT
19-0701282 2415 WASHINGTON AV 2019-07-07 19:15:10.230 DISTURBANCE
19-0701281 2000 WOODLAND SPRINGS DR 2019-07-07 18:57:36.350 ATTEMPT TO CONTACT
19-0701280 1155 SKYLINE DR 2019-07-07 18:51:28.110 SUSPICIOUS VEHICLE
19-0701279 603 5TH AV 2019-07-07 18:50:02.000 SUPPLEMENT REPORT CALL
19-0701277 1620 MIDDLE RD 2019-07-07 18:15:30.087 REPOSSESSION
19-0701276 5310 PLANTATION CV 2019-07-07 17:53:06.030 ENDANGERING WELFARE OF MINOR
19-0701275 410 ELSINGER BLVD 2019-07-07 17:47:32.903 TRESPASSING
19-0701274 19-07567 3900 DAVE WARD DR 2019-07-07 17:44:31.287 INTOXICATED PERSON
19-0701273 1701 DAVE WARD DR 2019-07-07 17:36:03.317 PROPERTY DAMAGE
19-0701271 10 LOWER RIDGE RD 2019-07-07 17:05:12.770 TRESPASSING
19-0701270 600 5TH AV 2019-07-07 16:54:58.080 TERRORISTIC THREATENING
19-0701269 2500 DAVE WARD DR 2019-07-07 16:51:09.327 DOMESTIC DISTURBANCE
19-0701267 101 OAK ST 2019-07-07 16:39:22.877 CHECKING VEHICLE
19-0701266 700 3RD AV 2019-07-07 16:32:50.660 SERVING SUBPOENA
19-0701265 1700 DONAGHEY AV 2019-07-07 16:24:07.730 DISORDERLY CONDUCT
19-0701264 19-07566 101 OAK ST 2019-07-07 16:15:03.440 SHOPLIFTING
19-0701263 101 OAK ST 2019-07-07 16:04:39.857 CHECK ON THE WELFARE
19-0701262 680 INGRAM ST 2019-07-07 15:55:03.137 ATTEMPT TO CONTACT
19-0701261 680 INGRAM ST 2019-07-07 15:48:24.850 SERVING SUBPOENA
19-0701260 700 3RD AV 2019-07-07 15:44:28.790 SERVING SUBPOENA
19-0701258 19-07565 2730 DAVE WARD DR 2019-07-07 15:35:08.390 DOMESTIC DISTURBANCE
19-0701256 19-07564 201 SKYLINE DR 2019-07-07 15:21:55.217 ACCIDENT - PRIVATE PROPERTY
19-0701255 1105 SKYLINE DR 2019-07-07 15:18:46.970 NO CONTACT ORDER VIOLATION
19-0701254 2730 DAVE WARD DR 2019-07-07 15:09:44.633 SUPPLEMENT REPORT CALL
19-0701253 1025 S DONAGHEY AV 2019-07-07 15:09:04.730 HARASSING COMMUNICATIONS
19-0701252 635 INGRAM VILLAGE DR 2019-07-07 14:41:25.610 SUPPLEMENT REPORT CALL
19-0701249 1902 HOGAN LN 2019-07-07 14:11:04.657 CHECK ON THE WELFARE
19-0701247 19-07563 10 LOWER RIDGE RD 2019-07-07 13:51:17.537 ACCIDENT - PROPERTY DAMAGE
19-0701246 5340 SANSON DR 2019-07-07 13:49:30.240 CIVIL STAND BY
19-0701245 19-07562 515 HARKRIDER ST 2019-07-07 13:46:20.840 THEFT OF PROPERTY
19-0701244 800 ROBINS ST 2019-07-07 13:23:40.620 TRAFFIC PROBLEM-CONTROL
19-0701240 580 E DAVE WARD DR 2019-07-07 12:49:55.290 CHECKING VEHICLE
19-0701239 375 E OAK ST 2019-07-07 12:36:57.373 DISTURBANCE
19-0701238 19-07560 201 SKYLINE DR 2019-07-07 12:32:11.253 ACCIDENT - PROPERTY DAMAGE
19-0701237 1425 S SALEM RD 2019-07-07 12:10:19.330 ALARM
19-0701236 19-07561 635 INGRAM VILLAGE DR 2019-07-07 12:10:13.590 CRIMINAL MISCHIEF
19-0701235 1802 COLLEGE AV 2019-07-07 12:04:10.030 FOUND PROPERTY
19-0701233 1210 DOGWOOD TRL 2019-07-07 12:02:52.000 ALARM
19-0701231 2730 DAVE WARD DR 2019-07-07 11:48:35.960 CIVIL MATTER
19-0701230 1200 E DAVE WARD DR 2019-07-07 11:44:06.717 RECKLESS DRIVER
19-0701228 19-07559 2550 PRINCE ST 2019-07-07 11:29:10.053 SHOPLIFTING
19-0701227 150 E SIEBENMORGEN RD 2019-07-07 11:27:39.560 ATTEMPT TO CONTACT
19-0701226 475 ROBINS ST 2019-07-07 11:17:51.637 ATTEMPT TO CONTACT
19-0701224 900 FARRIS RD 2019-07-07 11:04:23.927 CIVIL MATTER
19-0701223 905 SKYLINE DR 2019-07-07 11:01:21.857 CHECKING PERSON
19-0701221 2230 OLD MORRILTON HWY 2019-07-07 10:51:56.027 CHECKING VEHICLE
19-0701219 4215 PRINCE ST 2019-07-07 10:23:49.593 SUSPICIOUS PERSON
19-0701216 1365 MITCHELL ST 2019-07-07 09:18:22.877 SUPPLEMENT REPORT CALL
19-0701214 1210 S AMITY RD 2019-07-07 09:10:38.510 ALARM
19-0701213 100 SOUTH GERMAN LN 2019-07-07 09:10:13.877 PURSUIT DRILL
19-0701212 19-07557 2730 DAVE WARD DR 2019-07-07 09:04:09.100 MISSING PERSON
19-0701211 605 DAVE WARD DR 2019-07-07 08:58:20.280 OPEN DOOR/WINDOW/FENCE
19-0701209 207 WILLOW ST 2019-07-07 08:36:34.897 DISCHARGING FIREWORKS
19-0701206 201 SKYLINE DR 2019-07-07 08:20:55.130 ALARM
19-0701203 2730 DAVE WARD DR 2019-07-07 07:46:57.127 CHECK ON THE WELFARE
19-0701202 1720 OLD MORRILTON HWY 2019-07-07 07:37:19.033 ALARM
19-0701199 19-07556 1520 SILVER FALLS 2019-07-07 07:26:12.787 LOST CHILD-FOUND CHILD
19-0701196 201 SKYLINE DR 2019-07-07 06:03:13.547 ALARM
19-0701195 475 ROBINS ST 2019-07-07 05:56:37.770 CHECK ON THE WELFARE
19-0701194 2200 WASHINGTON AV 2019-07-07 05:43:36.910 TERRORISTIC THREATENING
19-0701193 414 OAK ST 2019-07-07 05:14:55.203 ALARM
19-0701192 1710 TUSCANY DR 2019-07-07 04:52:27.433 BURGLARY
19-0701191 1155 DAVE WARD DR 2019-07-07 04:47:56.053 ALARM
19-0701190 2730 DAVE WARD DR 2019-07-07 04:07:51.907 CHECK ON THE WELFARE
19-0701189 1020 FRONT ST 2019-07-07 03:23:20.997 CHECKING PERSON
19-0701188 1900 TYLER ST 2019-07-07 03:14:56.240 CHECKING VEHICLE
19-0701187 1900 TYLER ST 2019-07-07 03:12:19.180 CHECKING PERSON
19-0701186 2840 DAVE WARD DR 2019-07-07 02:52:36.473 PROWLER
19-0701185 19-07555 2210 ROBINSON AV 2019-07-07 02:37:38.127 SUSPICIOUS ACTIVITY
19-0701181 655 ELSINGER BLVD 2019-07-07 01:40:46.977 CHECKING VEHICLE
19-0701180 450 E DAVE WARD DR 2019-07-07 01:33:54.073 CHECKING VEHICLE
19-0701176 825 OAK ST 2019-07-07 00:57:18.170 DISTURBANCE
19-0701175 1135 SKYLINE DR 2019-07-07 00:49:47.983 CHECKING PERSON
19-0701173 3900 DAVE WARD DR 2019-07-07 00:44:26.607 UNKNOWN TROUBLE
19-0701172 1225 WOODSIDE DR 2019-07-07 00:39:05.557 LOUD NOISE-MUSIC
19-0701170 2490 SANDERS ST 2019-07-07 00:22:54.370 CHECKING PERSON
19-0701169 475 ROBINS ST 2019-07-07 00:12:47.513 DOMESTIC DISTURBANCE
19-0701167 2085 KEATHLEY DR 2019-07-06 23:43:27.650 911 HANGUP CALL
19-0701165 375 E OAK ST 2019-07-06 23:31:30.497 CHECKING PERSON
19-0701164 19-07554 3900 DAVE WARD DR 2019-07-06 23:21:08.413 SUSPICIOUS VEHICLE
19-0701163 1090 SKYLINE DR 2019-07-06 23:14:59.720 DISTURBANCE
19-0701162 2000 KEATHLEY DR 2019-07-06 23:14:24.307 LOUD NOISE-MUSIC
19-0701161 221 MILL ST 2019-07-06 23:11:09.900 DISTURBANCE
19-0701160 1311 BRUCE ST 2019-07-06 23:05:55.603 THEFT OF PROPERTY
19-0701159 2900 YORK LN 2019-07-06 23:05:35.743 DISCHARGING FIREWORKS
19-0701158 320 MERTON DR 2019-07-06 22:53:31.600 DOMESTIC DISTURBANCE
19-0701157 860 ELSINGER BLVD 2019-07-06 22:38:16.703 SUSPICIOUS ACTIVITY
19-0701156 311 OAK ST 2019-07-06 22:37:01.340 RECKLESS DRIVER
19-0701155 1124 HARKRIDER ST 2019-07-06 22:34:43.000 CHECKING PERSON
19-0701154 406 INGRAM ST 2019-07-06 22:32:48.650 DISTURBANCE
19-0701153 2420 BROADVIEW AV 2019-07-06 22:32:31.270 CHECKING VEHICLE
19-0701152 2010 CLEVELAND AV 2019-07-06 22:16:58.260 BARKING DOG COMPLAINT
19-0701150 2302 COLLEGE AV 2019-07-06 22:10:44.950 CHECKING PERSON
19-0701149 1600 DUNCAN ST 2019-07-06 22:08:11.320 DISCHARGING FIREWORKS
19-0701148 820 9TH AV 2019-07-06 21:47:34.200 ALARM
19-0701147 19-07553 1701 DONAGHEY AV 2019-07-06 21:46:57.620 RUNAWAY
19-0701146 4565 UTAH TRL 2019-07-06 21:41:15.633 DISCHARGING FIREWORKS
19-0701145 1085 MONTANA DR 2019-07-06 21:37:26.170 DISCHARGING FIREWORKS
19-0701144 1802 ROBINS ST 2019-07-06 21:35:14.820 DISCHARGING FIREWORKS
19-0701141 19-07552 500 SOUTH GERMAN LN 2019-07-06 21:19:45.270 MISDEMEANOR WARRANT SERVICE
19-0701140 602 1ST AV 2019-07-06 21:10:28.083 SUSPICIOUS VEHICLE
19-0701139 600 MILL ST 2019-07-06 21:09:36.557 DISCHARGING FIREWORKS
19-0701138 2695 DAVE WARD DR 2019-07-06 21:05:20.870 DISCHARGING FIREWORKS
19-0701137 635 INGRAM VILLAGE DR 2019-07-06 21:03:16.350 DOMESTIC DISTURBANCE
19-0701135 313 ANGUS ST 2019-07-06 20:59:17.200 DISCHARGING FIREWORKS
19-0701134 2605 ORCHARD PARK DR 2019-07-06 20:57:49.887 DISCHARGING FIREWORKS
19-0701133 825 4TH AV 2019-07-06 20:57:04.663 DISCHARGING FIREWORKS
19-0701129 19-07551 1105 SKYLINE DR 2019-07-06 20:15:53.513 CHECKING PERSON
19-0701125 2915 PEBBLE BEACH DR 2019-07-06 19:41:30.167 DOMESTIC DISTURBANCE
19-0701123 150 E OAK ST 2019-07-06 19:23:32.510 ENDANGERING WELFARE OF MINOR
19-0701121 19-07550 400 WILLOW ST 2019-07-06 19:09:26.720 ACCIDENT - PROPERTY DAMAGE
19-0701119 1040 S AMITY RD 2019-07-06 18:50:02.407 ALARM
19-0701118 924 MAIN ST 2019-07-06 18:38:06.457 ALARM
19-0701117 201 SKYLINE DR 2019-07-06 18:34:52.670 SUPPLEMENT REPORT CALL
19-0701116 3400 IRBY DR 2019-07-06 17:55:14.420 DISTURBANCE
19-0701115 855 SALEM RD 2019-07-06 17:50:50.653 ABANDONED VEHICLE
19-0701113 1600 JOSH DR 2019-07-06 17:42:26.693 ALARM
19-0701110 19-07549 201 SKYLINE DR 2019-07-06 17:28:17.563 ACCIDENT - PRIVATE PROPERTY
19-0701109 401 2ND ST 2019-07-06 17:00:49.100 AGENCY ASSIST
19-0701108 1662 DAVE WARD DR 2019-07-06 16:58:42.180 SUPPLEMENT REPORT CALL
19-0701106 19-07547 475 ROBINS ST 2019-07-06 16:31:24.043 BURGLARY
19-0701105 1515 POTEETE DR 2019-07-06 16:22:36.463 SUSPICIOUS VEHICLE
19-0701103 500 OAK ST 2019-07-06 16:14:33.030 ATTEMPT TO CONTACT
19-0701101 855 E OAK ST 2019-07-06 15:34:09.667 ATTEMPT TO CONTACT
19-0701099 19-07545 500 OAK ST 2019-07-06 15:21:50.500 ACCIDENT - PERSONAL INJURY
19-0701098 100 CENTER ST 2019-07-06 15:16:28.687 SUPPLEMENT REPORT CALL
19-0701097 19-07543 10 LOWER RIDGE RD 2019-07-06 15:13:07.493 ACCIDENT - PROPERTY DAMAGE
19-0701096 19-07544 25 WOODLAWN DR 2019-07-06 15:04:42.080 DOMESTIC DISTURBANCE
19-0701094 290 S ASH ST 2019-07-06 14:59:28.847 ATTEMPT TO CONTACT
19-0701093 1835 AMOS DR 2019-07-06 14:46:21.680 ALARM
19-0701092 19-07542 1155 SKYLINE DR 2019-07-06 14:35:38.893 THEFT OF PROPERTY
19-0701088 1155 SKYLINE DR 2019-07-06 14:07:03.787 CITY ORDINANCE VIOLATION
19-0701087 19-07541 515 HARKRIDER ST 2019-07-06 14:03:16.433 FOUND PROPERTY
19-0701086 2255 STURGIS RD 2019-07-06 14:00:42.383 INTOXICATED DRIVER
19-0701085 19-07540 2799 SALEM RD 2019-07-06 13:55:01.053 ABANDONED VEHICLE
19-0701084 1705 S SALEM RD 2019-07-06 13:42:15.180 ALARM
19-0701083 19-07539 800 CENTER ST 2019-07-06 13:40:57.083 BREAKING OR ENTERING
19-0701081 380 HARKRIDER ST 2019-07-06 13:28:39.657 ATTEMPT TO CONTACT
19-0701080 2515 W MARTIN ST 2019-07-06 13:27:38.240 AGENCY ASSIST
19-0701079 19-07538 1717 DUNCAN ST 2019-07-06 13:24:32.363 RUNAWAY
19-0701077 19-07537 1200 E DAVE WARD DR 2019-07-06 13:17:09.600 ACCIDENT - HIT AND RUN
19-0701076 2010 RICH SMITH LN 2019-07-06 13:17:02.347 VEHICLE TOW
19-0701075 1640 PIKE RIDGE RD 2019-07-06 13:02:59.460 ATTEMPT TO CONTACT
19-0701074 1225 WOODSIDE DR 2019-07-06 12:56:48.737 SUPPLEMENT REPORT CALL
19-0701073 19-07536 3265 STONE RD 2019-07-06 12:35:36.737 THEFT OF PROPERTY
19-0701072 19-07535 2915 DAVE WARD DR 2019-07-06 12:34:43.463 THEFT OF SERVICES
19-0701071 504 6TH ST 2019-07-06 12:28:51.727 CIVIL MATTER
19-0701070 19-07534 605 SOUTH GERMAN LN 2019-07-06 12:20:01.247 DOMESTIC DISTURBANCE
19-0701067 19-07532 1621 WESTLAKE DR 2019-07-06 12:03:29.190 DOMESTIC DISTURBANCE
19-0701065 1230 CLIFTON ST 2019-07-06 11:57:44.207 ATTEMPT TO CONTACT
19-0701064 1230 CLIFTON ST 2019-07-06 11:40:59.937 DOMESTIC DISTURBANCE
19-0701062 601 MONROE ST 2019-07-06 11:06:47.133 PARKING VIOLATION
19-0701060 2302 COLLEGE AV 2019-07-06 10:54:06.050 CIVIL MATTER
19-0701056 19-07530 709 CENTER ST 2019-07-06 10:27:59.583 BREAKING OR ENTERING
19-0701055 2050 DAVE WARD DR 2019-07-06 10:20:02.127 DOMESTIC DISTURBANCE
19-0701054 1070 COLLIER DR 2019-07-06 10:15:25.660 AUDIBLE ALARM
19-0701052 19-07531 2550 PRINCE ST 2019-07-06 10:05:55.570 FOUND PROPERTY
19-0701049 1640 PIKE RIDGE RD 2019-07-06 09:37:37.923 ATTEMPT TO CONTACT
19-0701047 2145 CHARLIE DAYER DR 2019-07-06 09:22:08.170 ALARM
19-0701045 3115 COLLEGE AV 2019-07-06 09:19:01.780 CIVIL STAND BY
19-0701043 2010 RICH SMITH LN 2019-07-06 09:09:45.153 SUPPLEMENT REPORT CALL
19-0701042 2010 RICH SMITH LN 2019-07-06 09:03:07.930 SUPPLEMENT REPORT CALL
19-0701041 1610 PRINCE ST 2019-07-06 08:48:09.520 CHECKING PERSON
19-0701040 1002 E OAK ST 2019-07-06 08:37:28.310 SUPPLEMENT REPORT CALL
19-0701038 1105 PRAIRIE ST 2019-07-06 08:12:20.903 ATTEMPT TO CONTACT
19-0701036 501 COUNTRY CLUB RD 2019-07-06 08:09:12.360 TRAFFIC PROBLEM-CONTROL
19-0701035 1525 CLIFTON ST 2019-07-06 07:50:56.657 SUPPLEMENT REPORT CALL
19-0701033 19-07529 960 LOCUST AV 2019-07-06 07:33:28.890 CRIMINAL MISCHIEF
19-0701031 1405 S DONAGHEY AV 2019-07-06 07:27:29.137 TRESPASSING
19-0701030 19-07528 2010 RICH SMITH LN 2019-07-06 07:14:58.617 THEFT OF VEHICLE
19-0701028 707 2ND AV 2019-07-06 06:55:20.137 TRESPASSING
19-0701026 3700 COLLEGE AV 2019-07-06 06:08:35.410 ALARM
19-0701025 2270 MEADOWLAKE RD 2019-07-06 05:50:00.893 REPOSSESSION
19-0701024 1475 ARAPAHO TRL 2019-07-06 05:35:14.307 CHECK ON THE WELFARE
19-0701023 605 1ST AV 2019-07-06 04:50:57.627 AGENCY ASSIST
19-0701021 3630 HEIDI CT 2019-07-06 04:05:48.697 PROWLER
19-0701020 905 SKYLINE DR 2019-07-06 03:27:15.467 CHECKING PERSON
19-0701019 1035 SKYLINE DR 2019-07-06 03:21:12.590 CHECKING PERSON
19-0701018 2200 WASHINGTON AV 2019-07-06 03:19:18.743 CIVIL MATTER
19-0701017 818 E OAK ST 2019-07-06 03:15:03.680 DISTURBANCE
19-0701015 5 CAMILLA LN 2019-07-06 02:40:43.563 TRESPASSING
19-0701014 19-07527 1655 S AMITY RD 2019-07-06 02:38:16.640 CRIMINAL MISCHIEF
19-0701013 620 ELSINGER BLVD 2019-07-06 02:35:40.017 ALARM
19-0701012 620 ELSINGER BLVD 2019-07-06 02:30:06.097 AUDIBLE ALARM
19-0701011 1520 OLD MORRILTON HWY 2019-07-06 02:20:49.703 CHECKING BUILDING
19-0701008 3900 DAVE WARD DR 2019-07-06 01:59:25.220 CRIMINAL MISCHIEF
19-0701007 3034 DONNELL RIDGE RD 2019-07-06 01:53:00.023 LOUD NOISE-MUSIC
19-0701006 2585 DONAGHEY AV 2019-07-06 01:52:45.377 CHECKING PERSON
19-0701005 2310 ROBINSON AV 2019-07-06 01:33:15.523 CHECKING VEHICLE
19-0701004 2900 DAVE WARD DR 2019-07-06 01:21:08.043 ROAD RAGE
19-0701002 1002 E OAK ST 2019-07-06 00:53:09.927 SUPPLEMENT REPORT CALL
19-0701001 814 E OAK ST 2019-07-06 00:51:09.307 ALARM
19-0701000 5201 TYLER ST 2019-07-06 00:38:04.620 CHECKING VEHICLE
19-0700999 2885 PRINCE ST 2019-07-06 00:32:14.727 CHECKING VEHICLE
19-0700998 2205 DAVE WARD DR 2019-07-06 00:26:23.850 FRAUD
19-0700997 100 BROOKSIDE DR 2019-07-06 00:03:49.527 SUSPICIOUS PERSON
19-0700996 816 E OAK ST 2019-07-06 00:00:26.880 LOUD NOISE-MUSIC
Call Number Case Number Address Call Time Incident Type

General Contacts

POLICE HEADQUARTERS
1105 Prairie Street
Conway, AR 72032

Conway Police Department


  911 (EMERGENCIES ONLY)

  501.450.6120 (non-emergency)

ANONYMOUS TIPS
 Leave a message at 501.450.6135
 Text CONWAY and your tip to 274637 (CRIMES) Click for an Example

   

City of Conway

We, the members of the Conway Police Department, are committed to protecting and serving the citizens of Conway, Arkansas. That is our highest calling, as we pledge to join hands with others in carrying out our sworn duty to uphold the law.

Chief Jody Spradlin

Latest Tweets